| time (UTC) | temp F | wind direction | speed knots | gust knots | rain 1hr in | rain 24hr in | rain mn in | humidity % | barometer mb |
| 20260504013029 | 60 | 0 | 1.7 | 2.6 | 0.00 | 0.00 | 0.00 | 60 | 1009.5 |
| 20260504012929 | 60 | 0 | 1.7 | 2.6 | 0.00 | 0.00 | 0.00 | 60 | 1009.6 |
| 20260504012829 | 60 | 0 | 0.9 | 2.6 | 0.00 | 0.00 | 0.00 | 60 | 1009.5 |
| 20260504012729 | 60 | 0 | 1.7 | 2.6 | 0.00 | 0.00 | 0.00 | 60 | 1009.5 |
| 20260504012629 | 60 | 0 | 1.7 | 2.6 | 0.00 | 0.00 | 0.00 | 60 | 1009.6 |
| 20260504012529 | 60 | 0 | 1.7 | 2.6 | 0.00 | 0.00 | 0.00 | 60 | 1009.5 |
| 20260504012429 | 59 | 0 | 1.7 | 2.6 | 0.00 | 0.00 | 0.00 | 60 | 1009.4 |
| 20260504012329 | 60 | 0 | 1.7 | 2.6 | 0.00 | 0.00 | 0.00 | 61 | 1009.4 |
| 20260504012229 | 60 | 0 | 0.9 | 2.6 | 0.00 | 0.00 | 0.00 | 61 | 1009.4 |
| 20260504012129 | 60 | 0 | 1.7 | 3.5 | 0.00 | 0.00 | 0.00 | 61 | 1009.4 |
| 20260504012029 | 60 | 0 | 1.7 | 4.3 | 0.00 | 0.00 | 0.00 | 60 | 1009.4 |
| 20260504011929 | 60 | 0 | 0.9 | 4.3 | 0.00 | 0.00 | 0.00 | 60 | 1009.5 |
| 20260504011829 | 60 | 0 | 0.9 | 4.3 | 0.00 | 0.00 | 0.00 | 61 | 1009.4 |
| 20260504011729 | 60 | 0 | 0.9 | 4.3 | 0.00 | 0.00 | 0.00 | 61 | 1009.4 |
| 20260504011629 | 60 | 0 | 0.9 | 4.3 | 0.00 | 0.00 | 0.00 | 61 | 1009.4 |
| 20260504011529 | 60 | 0 | 0.9 | 4.3 | 0.00 | 0.00 | 0.00 | 61 | 1009.4 |
| 20260504011428 | 60 | 0 | 0.9 | 4.3 | 0.00 | 0.00 | 0.00 | 60 | 1009.5 |
| 20260504011329 | 60 | 0 | 1.7 | 4.3 | 0.00 | 0.00 | 0.00 | 61 | 1009.5 |
| 20260504011229 | 60 | 0 | 1.7 | 4.3 | 0.00 | 0.00 | 0.00 | 61 | 1009.5 |
| 20260504011128 | 60 | 0 | 1.7 | 4.3 | 0.00 | 0.00 | 0.00 | 60 | 1009.5 |
| 20260504011028 | 60 | 0 | 0.9 | 3.5 | 0.00 | 0.00 | 0.00 | 60 | 1009.4 |
| 20260504010928 | 60 | 0 | 1.7 | 3.5 | 0.00 | 0.00 | 0.00 | 60 | 1009.4 |
| 20260504010828 | 60 | 0 | 1.7 | 3.5 | 0.00 | 0.00 | 0.00 | 60 | 1009.4 |
| 20260504010728 | 60 | 0 | 1.7 | 3.5 | 0.00 | 0.00 | 0.00 | 60 | 1009.4 |
| 20260504010628 | 60 | 0 | 1.7 | 3.5 | 0.00 | 0.00 | 0.00 | 60 | 1009.5 |
| 20260504010528 | 60 | 0 | 1.7 | 3.5 | 0.00 | 0.00 | 0.00 | 59 | 1009.4 |
| 20260504010428 | 60 | 0 | 1.7 | 3.5 | 0.00 | 0.00 | 0.00 | 59 | 1009.3 |
| 20260504010327 | 60 | 0 | 1.7 | 3.5 | 0.00 | 0.00 | 0.00 | 59 | 1009.4 |
| 20260504010228 | 60 | 0 | 1.7 | 4.3 | 0.00 | 0.00 | 0.00 | 60 | 1009.4 |
| 20260504010128 | 60 | 0 | 1.7 | 4.3 | 0.00 | 0.00 | 0.00 | 61 | 1009.4 |
| 20260504010029 | 60 | 0 | 1.7 | 4.3 | 0.00 | 0.00 | 0.00 | 60 | 1009.3 |
| 20260504005929 | 60 | 0 | 1.7 | 4.3 | 0.00 | 0.00 | 0.00 | 59 | 1009.4 |
| 20260504005828 | 60 | 0 | 1.7 | 4.3 | 0.00 | 0.00 | 0.00 | 59 | 1009.2 |
| 20260504005728 | 60 | 0 | 1.7 | 4.3 | 0.00 | 0.00 | 0.00 | 59 | 1009.3 |
| 20260504005628 | 60 | 0 | 1.7 | 4.3 | 0.00 | 0.00 | 0.00 | 59 | 1009.3 |
| 20260504005528 | 60 | 0 | 2.6 | 4.3 | 0.00 | 0.00 | 0.00 | 59 | 1009.2 |
| 20260504005428 | 60 | 0 | 2.6 | 4.3 | 0.00 | 0.00 | 0.00 | 59 | 1009.3 |
| 20260504005328 | 60 | 0 | 2.6 | 4.3 | 0.00 | 0.00 | 0.00 | 59 | 1009.4 |
| 20260504005228 | 60 | 0 | 2.6 | 3.5 | 0.00 | 0.00 | 0.00 | 59 | 1009.3 |
| 20260504005128 | 60 | 0 | 1.7 | 3.5 | 0.00 | 0.00 | 0.00 | 59 | 1009.4 |
| 20260504005028 | 60 | 0 | 1.7 | 2.6 | 0.00 | 0.00 | 0.00 | 59 | 1009.4 |
| 20260504004928 | 60 | 0 | 1.7 | 2.6 | 0.00 | 0.00 | 0.00 | 59 | 1009.5 |
| 20260504004828 | 60 | 0 | 1.7 | 2.6 | 0.00 | 0.00 | 0.00 | 59 | 1009.5 |
| 20260504004728 | 60 | 0 | 1.7 | 3.5 | 0.00 | 0.00 | 0.00 | 59 | 1009.4 |
| 20260504004628 | 60 | 0 | 1.7 | 4.3 | 0.00 | 0.00 | 0.00 | 59 | 1009.5 |
| 20260504004528 | 60 | 0 | 0.9 | 4.3 | 0.00 | 0.00 | 0.00 | 60 | 1009.5 |
| 20260504004428 | 60 | 0 | 0.9 | 4.3 | 0.00 | 0.00 | 0.00 | 59 | 1009.5 |
| 20260504004328 | 61 | 0 | 1.7 | 4.3 | 0.00 | 0.00 | 0.00 | 58 | 1009.6 |
| 20260504004228 | 61 | 0 | 1.7 | 4.3 | 0.00 | 0.00 | 0.00 | 59 | 1009.5 |
| 20260504004128 | 61 | 0 | 1.7 | 6.1 | 0.00 | 0.00 | 0.00 | 59 | 1009.5 |
| 20260504004028 | 61 | 0 | 1.7 | 6.1 | 0.00 | 0.00 | 0.00 | 59 | 1009.5 |
| 20260504003928 | 61 | 0 | 1.7 | 6.1 | 0.00 | 0.00 | 0.00 | 58 | 1009.5 |
| 20260504003828 | 61 | 0 | 2.6 | 6.1 | 0.00 | 0.00 | 0.00 | 58 | 1009.4 |
| 20260504003728 | 61 | 0 | 2.6 | 6.1 | 0.00 | 0.00 | 0.00 | 58 | 1009.4 |
| 20260504003628 | 61 | 0 | 2.6 | 6.1 | 0.00 | 0.00 | 0.00 | 59 | 1009.5 |
| 20260504003528 | 61 | 0 | 1.7 | 6.1 | 0.00 | 0.00 | 0.00 | 58 | 1009.6 |
| 20260504003428 | 61 | 0 | 2.6 | 6.1 | 0.00 | 0.00 | 0.00 | 59 | 1009.6 |
| 20260504003328 | 61 | 0 | 3.5 | 6.1 | 0.00 | 0.00 | 0.00 | 59 | 1009.5 |
| 20260504003228 | 61 | 0 | 2.6 | 6.1 | 0.00 | 0.00 | 0.00 | 59 | 1009.6 |
| 20260504003128 | 61 | 0 | 1.7 | 5.2 | 0.00 | 0.00 | 0.00 | 59 | 1009.6 |
| 20260504003028 | 61 | 0 | 1.7 | 5.2 | 0.00 | 0.00 | 0.00 | 59 | 1009.6 |
| 20260504002927 | 61 | 0 | 2.6 | 5.2 | 0.00 | 0.00 | 0.00 | 60 | 1009.7 |
| 20260504002827 | 61 | 0 | 2.6 | 5.2 | 0.00 | 0.00 | 0.00 | 59 | 1009.7 |
| 20260504002727 | 61 | 0 | 1.7 | 4.3 | 0.00 | 0.00 | 0.00 | 59 | 1009.7 |
| 20260504002627 | 61 | 0 | 1.7 | 4.3 | 0.00 | 0.00 | 0.00 | 59 | 1009.7 |
| 20260504002527 | 61 | 0 | 1.7 | 4.3 | 0.00 | 0.00 | 0.00 | 59 | 1009.7 |
| 20260504002428 | 61 | 0 | 1.7 | 4.3 | 0.00 | 0.00 | 0.00 | 58 | 1009.6 |
| 20260504002328 | 61 | 0 | 1.7 | 4.3 | 0.00 | 0.00 | 0.00 | 58 | 1009.5 |
| 20260504002228 | 61 | 0 | 2.6 | 4.3 | 0.00 | 0.00 | 0.00 | 57 | 1009.4 |
| 20260504002128 | 61 | 0 | 2.6 | 4.3 | 0.00 | 0.00 | 0.00 | 59 | 1009.3 |
| 20260504002028 | 61 | 0 | 2.6 | 3.5 | 0.00 | 0.00 | 0.00 | 58 | 1009.5 |
| 20260504001928 | 61 | 0 | 1.7 | 3.5 | 0.00 | 0.00 | 0.00 | 58 | 1009.6 |
| 20260504001827 | 61 | 0 | 1.7 | 6.1 | 0.00 | 0.00 | 0.00 | 58 | 1009.7 |
| 20260504001727 | 61 | 0 | 1.7 | 6.1 | 0.00 | 0.00 | 0.00 | 59 | 1009.8 |
| 20260504001627 | 61 | 0 | 2.6 | 6.1 | 0.00 | 0.00 | 0.00 | 58 | 1009.8 |
| 20260504001527 | 61 | 0 | 2.6 | 6.1 | 0.00 | 0.00 | 0.00 | 58 | 1009.9 |
| 20260504001427 | 61 | 0 | 1.7 | 6.1 | 0.00 | 0.00 | 0.00 | 58 | 1009.8 |
| 20260504001327 | 62 | 0 | 1.7 | 6.1 | 0.00 | 0.00 | 0.00 | 58 | 1009.8 |
| 20260504001227 | 62 | 0 | 1.7 | 6.1 | 0.00 | 0.00 | 0.00 | 58 | 1009.7 |
| 20260504001127 | 62 | 0 | 1.7 | 6.1 | 0.00 | 0.00 | 0.00 | 58 | 1009.6 |
| 20260504001027 | 62 | 0 | 2.6 | 6.1 | 0.00 | 0.00 | 0.00 | 58 | 1009.6 |
| 20260504000927 | 62 | 0 | 2.6 | 6.1 | 0.00 | 0.00 | 0.00 | 58 | 1009.5 |
| 20260504000827 | 62 | 0 | 1.7 | 5.2 | 0.00 | 0.00 | 0.00 | 57 | 1009.5 |
| 20260504000727 | 62 | 0 | 1.7 | 5.2 | 0.00 | 0.00 | 0.00 | 57 | 1009.5 |
| 20260504000628 | 62 | 0 | 1.7 | 5.2 | 0.00 | 0.00 | 0.00 | 57 | 1009.5 |
| 20260504000528 | 62 | 0 | 1.7 | 5.2 | 0.00 | 0.00 | 0.00 | 58 | 1009.5 |
| 20260504000427 | 62 | 0 | 2.6 | 5.2 | 0.00 | 0.00 | 0.00 | 58 | 1009.5 |
| 20260504000327 | 62 | 0 | 3.5 | 5.2 | 0.00 | 0.00 | 0.00 | 58 | 1009.5 |
| 20260504000227 | 62 | 0 | 2.6 | 5.2 | 0.00 | 0.00 | 0.00 | 58 | 1009.6 |
| 20260504000127 | 62 | 0 | 1.7 | 3.5 | 0.00 | 0.00 | 0.00 | 58 | 1009.7 |
| 20260504000027 | 62 | 0 | 1.7 | 3.5 | 0.00 | 0.00 | 0.00 | 58 | 1009.7 |
| 20260503235927 | 62 | 0 | 1.7 | 3.5 | 0.00 | 0.00 | 0.00 | 58 | 1009.8 |
| 20260503235827 | 62 | 0 | 1.7 | 3.5 | 0.00 | 0.00 | 0.00 | 58 | 1009.7 |
| 20260503235727 | 62 | 0 | 1.7 | 3.5 | 0.00 | 0.00 | 0.00 | 57 | 1009.6 |
| 20260503235627 | 62 | 0 | 1.7 | 3.5 | 0.00 | 0.00 | 0.00 | 57 | 1009.6 |
| 20260503235527 | 62 | 0 | 1.7 | 3.5 | 0.00 | 0.00 | 0.00 | 58 | 1009.5 |
| 20260503235427 | 62 | 0 | 2.6 | 3.5 | 0.00 | 0.00 | 0.00 | 58 | 1009.6 |
| 20260503235327 | 62 | 0 | 2.6 | 3.5 | 0.00 | 0.00 | 0.00 | 58 | 1009.5 |
| 20260503235227 | 62 | 0 | 1.7 | 3.5 | 0.00 | 0.00 | 0.00 | 58 | 1009.6 |
| 20260503235127 | 62 | 0 | 1.7 | 3.5 | 0.00 | 0.00 | 0.00 | 58 | 1009.6 |
| 20260503235027 | 62 | 0 | 1.7 | 3.5 | 0.00 | 0.00 | 0.00 | 58 | 1009.6 |
| 20260503234927 | 62 | 0 | 1.7 | 3.5 | 0.00 | 0.00 | 0.00 | 58 | 1009.7 |
| 20260503234827 | 62 | 0 | 1.7 | 3.5 | 0.00 | 0.00 | 0.00 | 58 | 1009.8 |
| 20260503234727 | 62 | 0 | 1.7 | 3.5 | 0.00 | 0.00 | 0.00 | 59 | 1009.8 |
| 20260503234627 | 62 | 0 | 1.7 | 3.5 | 0.00 | 0.00 | 0.00 | 58 | 1009.9 |
| 20260503234527 | 61 | 0 | 1.7 | 3.5 | 0.00 | 0.00 | 0.00 | 58 | 1009.8 |
| 20260503234427 | 61 | 0 | 2.6 | 3.5 | 0.00 | 0.00 | 0.00 | 57 | 1009.9 |
| 20260503234327 | 61 | 0 | 2.6 | 3.5 | 0.00 | 0.00 | 0.00 | 58 | 1009.8 |
| 20260503234227 | 61 | 0 | 1.7 | 7.8 | 0.00 | 0.00 | 0.00 | 58 | 1009.7 |
| 20260503234127 | 61 | 0 | 0.9 | 7.8 | 0.00 | 0.00 | 0.00 | 59 | 1009.6 |
| 20260503234027 | 61 | 0 | 0.9 | 7.8 | 0.00 | 0.00 | 0.00 | 59 | 1009.6 |
| 20260503233927 | 61 | 0 | 0.9 | 7.8 | 0.00 | 0.00 | 0.00 | 60 | 1009.5 |
| 20260503233826 | 61 | 0 | 0.9 | 7.8 | 0.00 | 0.00 | 0.00 | 59 | 1009.6 |
| 20260503233727 | 61 | 0 | 0.9 | 7.8 | 0.00 | 0.00 | 0.00 | 59 | 1009.6 |
| 20260503233627 | 61 | 0 | 0.9 | 7.8 | 0.00 | 0.00 | 0.00 | 58 | 1009.7 |
| 20260503233526 | 61 | 0 | 0.9 | 7.8 | 0.00 | 0.00 | 0.00 | 59 | 1009.5 |
| 20260503233427 | 61 | 0 | 2.6 | 7.8 | 0.00 | 0.00 | 0.00 | 58 | 1009.5 |
| 20260503233327 | 61 | 0 | 2.6 | 7.8 | 0.00 | 0.00 | 0.00 | 58 | 1009.5 |
| 20260503233227 | 61 | 0 | 1.7 | 4.3 | 0.00 | 0.00 | 0.00 | 58 | 1009.4 |
| 20260503233127 | 61 | 0 | 2.6 | 4.3 | 0.00 | 0.00 | 0.00 | 58 | 1009.4 |
| 20260503233026 | 61 | 0 | 2.6 | 4.3 | 0.00 | 0.00 | 0.00 | 57 | 1009.4 |
| 20260503232927 | 61 | 0 | 2.6 | 6.1 | 0.00 | 0.00 | 0.00 | 58 | 1009.5 |
| 20260503232827 | 61 | 0 | 2.6 | 6.1 | 0.00 | 0.00 | 0.00 | 58 | 1009.5 |
| 20260503232726 | 61 | 0 | 2.6 | 6.1 | 0.00 | 0.00 | 0.00 | 58 | 1009.5 |
| 20260503232626 | 61 | 0 | 2.6 | 6.1 | 0.00 | 0.00 | 0.00 | 57 | 1009.6 |
| 20260503232527 | 61 | 0 | 2.6 | 6.1 | 0.00 | 0.00 | 0.00 | 58 | 1009.6 |
| 20260503232426 | 61 | 0 | 2.6 | 6.1 | 0.00 | 0.00 | 0.00 | 58 | 1009.8 |
| 20260503232326 | 61 | 0 | 1.7 | 6.1 | 0.00 | 0.00 | 0.00 | 58 | 1010.0 |
| 20260503232226 | 61 | 0 | 2.6 | 6.1 | 0.00 | 0.00 | 0.00 | 58 | 1010.0 |
| 20260503232126 | 61 | 0 | 3.5 | 6.1 | 0.00 | 0.00 | 0.00 | 57 | 1010.0 |
| 20260503232026 | 61 | 0 | 2.6 | 6.1 | 0.00 | 0.00 | 0.00 | 58 | 1010.0 |
| 20260503231926 | 61 | 0 | 1.7 | 6.1 | 0.00 | 0.00 | 0.00 | 58 | 1010.1 |
| 20260503231826 | 61 | 0 | 2.6 | 6.1 | 0.00 | 0.00 | 0.00 | 58 | 1010.1 |
| 20260503231726 | 61 | 0 | 3.5 | 6.1 | 0.00 | 0.00 | 0.00 | 58 | 1010.1 |
| 20260503231626 | 61 | 0 | 3.5 | 6.1 | 0.00 | 0.00 | 0.00 | 57 | 1010.1 |
| 20260503231526 | 61 | 0 | 2.6 | 5.2 | 0.00 | 0.00 | 0.00 | 59 | 1010.0 |
| 20260503231426 | 61 | 0 | 1.7 | 6.1 | 0.00 | 0.00 | 0.00 | 58 | 1009.9 |
| 20260503231326 | 61 | 0 | 2.6 | 6.1 | 0.00 | 0.00 | 0.00 | 58 | 1009.9 |
| 20260503231226 | 61 | 0 | 2.6 | 6.1 | 0.00 | 0.00 | 0.00 | 58 | 1009.7 |
| 20260503231126 | 61 | 0 | 2.6 | 6.1 | 0.00 | 0.00 | 0.00 | 58 | 1009.6 |
| 20260503231026 | 61 | 0 | 2.6 | 6.1 | 0.00 | 0.00 | 0.00 | 58 | 1009.5 |
| 20260503230926 | 61 | 0 | 3.5 | 6.1 | 0.00 | 0.00 | 0.00 | 58 | 1009.5 |
| 20260503230826 | 61 | 0 | 3.5 | 6.1 | 0.00 | 0.00 | 0.00 | 58 | 1009.5 |
| 20260503230726 | 61 | 0 | 3.5 | 6.1 | 0.00 | 0.00 | 0.00 | 58 | 1009.5 |
| 20260503230626 | 61 | 0 | 3.5 | 6.1 | 0.00 | 0.00 | 0.00 | 58 | 1009.6 |
| 20260503230526 | 61 | 0 | 3.5 | 6.1 | 0.00 | 0.00 | 0.00 | 59 | 1009.6 |
| 20260503230426 | 61 | 0 | 2.6 | 5.2 | 0.00 | 0.00 | 0.00 | 59 | 1009.6 |
| 20260503230326 | 61 | 0 | 2.6 | 4.3 | 0.00 | 0.00 | 0.00 | 59 | 1009.6 |
| 20260503230225 | 62 | 0 | 2.6 | 4.3 | 0.00 | 0.00 | 0.00 | 59 | 1009.6 |
| 20260503230125 | 62 | 0 | 3.5 | 4.3 | 0.00 | 0.00 | 0.00 | 58 | 1009.7 |
| 20260503230026 | 62 | 0 | 3.5 | 4.3 | 0.00 | 0.00 | 0.00 | 58 | 1009.7 |
| 20260503225926 | 62 | 0 | 3.5 | 4.3 | 0.00 | 0.00 | 0.00 | 59 | 1009.8 |
| 20260503225825 | 62 | 0 | 2.6 | 3.5 | 0.00 | 0.00 | 0.00 | 58 | 1010.0 |
| 20260503225726 | 62 | 0 | 2.6 | 3.5 | 0.00 | 0.00 | 0.00 | 58 | 1010.0 |
| 20260503225626 | 62 | 0 | 2.6 | 3.5 | 0.00 | 0.00 | 0.00 | 58 | 1010.2 |
| 20260503225526 | 62 | 0 | 2.6 | 3.5 | 0.00 | 0.00 | 0.00 | 58 | 1010.1 |
| 20260503225426 | 62 | 0 | 2.6 | 5.2 | 0.00 | 0.00 | 0.00 | 57 | 1010.1 |
| 20260503225326 | 62 | 0 | 2.6 | 5.2 | 0.00 | 0.00 | 0.00 | 56 | 1010.1 |
| 20260503225226 | 62 | 0 | 2.6 | 5.2 | 0.00 | 0.00 | 0.00 | 56 | 1010.2 |
| 20260503225126 | 62 | 0 | 2.6 | 5.2 | 0.00 | 0.00 | 0.00 | 56 | 1010.4 |
| 20260503225025 | 62 | 0 | 1.7 | 5.2 | 0.00 | 0.00 | 0.00 | 56 | 1010.7 |
| 20260503224925 | 62 | 0 | 2.6 | 5.2 | 0.00 | 0.00 | 0.00 | 57 | 1010.8 |
| 20260503224825 | 62 | 0 | 2.6 | 5.2 | 0.00 | 0.00 | 0.00 | 57 | 1010.9 |
| 20260503224725 | 62 | 0 | 1.7 | 5.2 | 0.00 | 0.00 | 0.00 | 56 | 1011.0 |
| 20260503224625 | 62 | 0 | 2.6 | 5.2 | 0.00 | 0.00 | 0.00 | 56 | 1011.0 |
| 20260503224526 | 62 | 0 | 2.6 | 5.2 | 0.00 | 0.00 | 0.00 | 56 | 1011.0 |
| 20260503224426 | 62 | 0 | 1.7 | 3.5 | 0.00 | 0.00 | 0.00 | 57 | 1011.1 |
| 20260503224326 | 62 | 0 | 1.7 | 3.5 | 0.00 | 0.00 | 0.00 | 57 | 1011.2 |
| 20260503224226 | 62 | 0 | 1.7 | 3.5 | 0.00 | 0.00 | 0.00 | 57 | 1011.2 |
| 20260503224126 | 62 | 0 | 1.7 | 5.2 | 0.00 | 0.00 | 0.00 | 56 | 1011.3 |
| 20260503224025 | 62 | 0 | 1.7 | 5.2 | 0.00 | 0.00 | 0.00 | 58 | 1011.2 |
| 20260503223925 | 62 | 0 | 1.7 | 5.2 | 0.00 | 0.00 | 0.00 | 57 | 1011.1 |
| 20260503223825 | 62 | 0 | 1.7 | 5.2 | 0.00 | 0.00 | 0.00 | 57 | 1011.0 |
| 20260503223725 | 62 | 0 | 1.7 | 5.2 | 0.00 | 0.00 | 0.00 | 56 | 1011.0 |
| 20260503223625 | 62 | 0 | 1.7 | 5.2 | 0.00 | 0.00 | 0.00 | 56 | 1011.0 |
| 20260503223525 | 62 | 0 | 1.7 | 5.2 | 0.00 | 0.00 | 0.00 | 55 | 1010.9 |
| 20260503223425 | 62 | 0 | 1.7 | 5.2 | 0.00 | 0.00 | 0.00 | 55 | 1010.9 |
| 20260503223325 | 62 | 0 | 1.7 | 5.2 | 0.00 | 0.00 | 0.00 | 55 | 1010.9 |
| 20260503223225 | 62 | 0 | 1.7 | 5.2 | 0.00 | 0.00 | 0.00 | 56 | 1010.9 |
| 20260503223125 | 62 | 0 | 1.7 | 4.3 | 0.00 | 0.00 | 0.00 | 54 | 1010.8 |
| 20260503223025 | 62 | 0 | 1.7 | 4.3 | 0.00 | 0.00 | 0.00 | 55 | 1010.8 |
| 20260503222925 | 62 | 0 | 1.7 | 4.3 | 0.00 | 0.00 | 0.00 | 55 | 1010.8 |
| 20260503222825 | 62 | 0 | 1.7 | 4.3 | 0.00 | 0.00 | 0.00 | 55 | 1010.8 |
| 20260503222725 | 62 | 0 | 2.6 | 4.3 | 0.00 | 0.00 | 0.00 | 54 | 1010.7 |
| 20260503222625 | 62 | 0 | 2.6 | 4.3 | 0.00 | 0.00 | 0.00 | 55 | 1010.7 |
| 20260503222525 | 62 | 0 | 2.6 | 4.3 | 0.00 | 0.00 | 0.00 | 55 | 1010.6 |
| 20260503222425 | 62 | 0 | 1.7 | 4.3 | 0.00 | 0.00 | 0.00 | 54 | 1010.7 |
| 20260503222325 | 62 | 0 | 2.6 | 4.3 | 0.00 | 0.00 | 0.00 | 55 | 1010.7 |
| 20260503222225 | 62 | 0 | 2.6 | 4.3 | 0.00 | 0.00 | 0.00 | 54 | 1010.7 |
| 20260503222125 | 62 | 0 | 3.5 | 5.2 | 0.00 | 0.00 | 0.00 | 54 | 1010.7 |
| 20260503222025 | 62 | 0 | 2.6 | 5.2 | 0.00 | 0.00 | 0.00 | 54 | 1010.7 |
| 20260503221925 | 62 | 0 | 2.6 | 5.2 | 0.00 | 0.00 | 0.00 | 56 | 1010.8 |
| 20260503221825 | 62 | 0 | 2.6 | 5.2 | 0.00 | 0.00 | 0.00 | 56 | 1010.8 |
| 20260503221725 | 62 | 0 | 1.7 | 5.2 | 0.00 | 0.00 | 0.00 | 56 | 1010.8 |
| 20260503221625 | 62 | 0 | 1.7 | 7.8 | 0.00 | 0.00 | 0.00 | 56 | 1010.9 |
| 20260503221525 | 62 | 0 | 1.7 | 7.8 | 0.00 | 0.00 | 0.00 | 55 | 1010.8 |
| 20260503221425 | 62 | 0 | 1.7 | 7.8 | 0.00 | 0.00 | 0.00 | 57 | 1010.9 |
| 20260503221323 | 62 | 0 | 2.6 | 7.8 | 0.00 | 0.00 | 0.00 | 56 | 1010.8 |
| 20260503221225 | 62 | 0 | 3.5 | 7.8 | 0.00 | 0.00 | 0.00 | 54 | 1010.8 |
| 20260503221125 | 62 | 0 | 2.6 | 7.8 | 0.00 | 0.00 | 0.00 | 55 | 1010.9 |
| 20260503221024 | 62 | 0 | 2.6 | 7.8 | 0.00 | 0.00 | 0.00 | 54 | 1010.8 |
| 20260503220924 | 62 | 0 | 3.5 | 7.8 | 0.00 | 0.00 | 0.00 | 55 | 1010.7 |
| 20260503220824 | 62 | 0 | 3.5 | 7.8 | 0.00 | 0.00 | 0.00 | 55 | 1010.8 |
| 20260503220724 | 62 | 0 | 3.5 | 7.8 | 0.00 | 0.00 | 0.00 | 55 | 1010.9 |
| 20260503220624 | 62 | 0 | 2.6 | 7.8 | 0.00 | 0.00 | 0.00 | 55 | 1010.9 |
| 20260503220525 | 62 | 0 | 2.6 | 7.8 | 0.00 | 0.00 | 0.00 | 54 | 1010.8 |
| 20260503220425 | 62 | 0 | 2.6 | 7.8 | 0.00 | 0.00 | 0.00 | 54 | 1010.7 |
| 20260503220325 | 62 | 0 | 2.6 | 7.8 | 0.00 | 0.00 | 0.00 | 53 | 1010.7 |
| 20260503220224 | 62 | 0 | 2.6 | 7.8 | 0.00 | 0.00 | 0.00 | 54 | 1010.7 |
| 20260503220124 | 62 | 0 | 2.6 | 7.8 | 0.00 | 0.00 | 0.00 | 54 | 1010.7 |
| 20260503220024 | 62 | 0 | 2.6 | 7.8 | 0.00 | 0.00 | 0.00 | 54 | 1010.7 |
| 20260503215924 | 62 | 0 | 3.5 | 7.8 | 0.00 | 0.00 | 0.00 | 53 | 1010.6 |
| 20260503215824 | 62 | 0 | 3.5 | 7.8 | 0.00 | 0.00 | 0.00 | 53 | 1010.5 |
| 20260503215725 | 62 | 0 | 4.3 | 7.8 | 0.00 | 0.00 | 0.00 | 54 | 1010.5 |
| 20260503215625 | 62 | 0 | 3.5 | 7.8 | 0.00 | 0.00 | 0.00 | 53 | 1010.5 |
| 20260503215524 | 62 | 0 | 2.6 | 5.2 | 0.00 | 0.00 | 0.00 | 53 | 1010.5 |
| 20260503215424 | 62 | 0 | 2.6 | 5.2 | 0.00 | 0.00 | 0.00 | 54 | 1010.5 |
| 20260503215324 | 62 | 0 | 2.6 | 5.2 | 0.00 | 0.00 | 0.00 | 53 | 1010.4 |
| 20260503215224 | 62 | 0 | 2.6 | 5.2 | 0.00 | 0.00 | 0.00 | 54 | 1010.4 |
| 20260503215124 | 62 | 0 | 1.7 | 5.2 | 0.00 | 0.00 | 0.00 | 54 | 1010.4 |
| 20260503215024 | 62 | 0 | 2.6 | 5.2 | 0.00 | 0.00 | 0.00 | 54 | 1010.4 |
| 20260503214924 | 62 | 0 | 1.7 | 5.2 | 0.00 | 0.00 | 0.00 | 53 | 1010.4 |
| 20260503214824 | 62 | 0 | 3.5 | 5.2 | 0.00 | 0.00 | 0.00 | 53 | 1010.4 |
| 20260503214724 | 62 | 0 | 3.5 | 5.2 | 0.00 | 0.00 | 0.00 | 53 | 1010.4 |
| 20260503214624 | 62 | 0 | 2.6 | 5.2 | 0.00 | 0.00 | 0.00 | 53 | 1010.5 |
| 20260503214525 | 62 | 0 | 2.6 | 5.2 | 0.00 | 0.00 | 0.00 | 52 | 1010.5 |
| 20260503214424 | 61 | 0 | 3.5 | 5.2 | 0.00 | 0.00 | 0.00 | 53 | 1010.6 |
| 20260503214324 | 61 | 0 | 2.6 | 8.7 | 0.00 | 0.00 | 0.00 | 53 | 1010.7 |
| 20260503214224 | 61 | 0 | 2.6 | 8.7 | 0.00 | 0.00 | 0.00 | 53 | 1010.8 |
| 20260503214124 | 61 | 0 | 2.6 | 8.7 | 0.00 | 0.00 | 0.00 | 54 | 1010.8 |
| 20260503214024 | 61 | 0 | 2.6 | 8.7 | 0.00 | 0.00 | 0.00 | 54 | 1010.9 |
| 20260503213924 | 61 | 0 | 2.6 | 8.7 | 0.00 | 0.00 | 0.00 | 53 | 1011.0 |
| 20260503213824 | 62 | 0 | 3.5 | 8.7 | 0.00 | 0.00 | 0.00 | 53 | 1011.1 |
| 20260503213724 | 62 | 0 | 3.5 | 8.7 | 0.00 | 0.00 | 0.00 | 54 | 1011.2 |
| 20260503213624 | 62 | 0 | 2.6 | 8.7 | 0.00 | 0.00 | 0.00 | 54 | 1011.3 |
| 20260503213524 | 62 | 0 | 2.6 | 9.6 | 0.00 | 0.00 | 0.00 | 54 | 1011.3 |
| 20260503213423 | 62 | 0 | 2.6 | 9.6 | 0.00 | 0.00 | 0.00 | 54 | 1011.2 |
| 20260503213324 | 62 | 0 | 1.7 | 9.6 | 0.00 | 0.00 | 0.00 | 53 | 1011.2 |
| 20260503213224 | 62 | 0 | 1.7 | 9.6 | 0.00 | 0.00 | 0.00 | 52 | 1011.1 |
| 20260503213124 | 62 | 0 | 1.7 | 9.6 | 0.00 | 0.00 | 0.00 | 53 | 1011.1 |
| 20260503213024 | 62 | 0 | 2.6 | 9.6 | 0.00 | 0.00 | 0.00 | 52 | 1011.1 |
| 20260503212923 | 62 | 0 | 2.6 | 9.6 | 0.00 | 0.00 | 0.00 | 51 | 1011.0 |
| 20260503212823 | 62 | 0 | 2.6 | 9.6 | 0.00 | 0.00 | 0.00 | 52 | 1010.9 |
| 20260503212723 | 62 | 0 | 2.6 | 9.6 | 0.00 | 0.00 | 0.00 | 51 | 1010.9 |
| 20260503212623 | 62 | 0 | 3.5 | 9.6 | 0.00 | 0.00 | 0.00 | 52 | 1010.9 |
| 20260503212524 | 62 | 0 | 1.7 | 5.2 | 0.00 | 0.00 | 0.00 | 52 | 1011.0 |
| 20260503212424 | 62 | 0 | 1.7 | 5.2 | 0.00 | 0.00 | 0.00 | 52 | 1010.9 |
| 20260503212324 | 61 | 0 | 2.6 | 5.2 | 0.00 | 0.00 | 0.00 | 53 | 1011.0 |
| 20260503212223 | 61 | 0 | 1.7 | 5.2 | 0.00 | 0.00 | 0.00 | 53 | 1011.0 |
| 20260503212123 | 61 | 0 | 2.6 | 5.2 | 0.00 | 0.00 | 0.00 | 53 | 1011.0 |
| 20260503212023 | 61 | 0 | 3.5 | 5.2 | 0.00 | 0.00 | 0.00 | 53 | 1011.0 |
| 20260503211923 | 61 | 0 | 1.7 | 5.2 | 0.00 | 0.00 | 0.00 | 54 | 1011.1 |
| 20260503211823 | 61 | 0 | 1.7 | 5.2 | 0.00 | 0.00 | 0.00 | 53 | 1011.1 |
| 20260503211723 | 61 | 0 | 1.7 | 5.2 | 0.00 | 0.00 | 0.00 | 54 | 1011.2 |
| 20260503211623 | 61 | 0 | 1.7 | 6.1 | 0.00 | 0.00 | 0.00 | 53 | 1011.2 |
| 20260503211524 | 61 | 0 | 2.6 | 6.1 | 0.00 | 0.00 | 0.00 | 52 | 1011.2 |
| 20260503211424 | 61 | 0 | 1.7 | 6.1 | 0.00 | 0.00 | 0.00 | 53 | 1011.3 |
| 20260503211324 | 61 | 0 | 1.7 | 6.1 | 0.00 | 0.00 | 0.00 | 53 | 1011.3 |
| 20260503211224 | 61 | 0 | 1.7 | 6.1 | 0.00 | 0.00 | 0.00 | 53 | 1011.4 |
| 20260503211124 | 61 | 0 | 2.6 | 6.1 | 0.00 | 0.00 | 0.00 | 53 | 1011.5 |
| 20260503211023 | 61 | 0 | 2.6 | 6.1 | 0.00 | 0.00 | 0.00 | 53 | 1011.6 |
| 20260503210923 | 61 | 0 | 2.6 | 6.1 | 0.00 | 0.00 | 0.00 | 53 | 1011.6 |
| 20260503210823 | 61 | 0 | 3.5 | 6.1 | 0.00 | 0.00 | 0.00 | 54 | 1011.6 |
| 20260503210723 | 61 | 0 | 3.5 | 6.1 | 0.00 | 0.00 | 0.00 | 53 | 1011.4 |
| 20260503210623 | 61 | 0 | 3.5 | 6.1 | 0.00 | 0.00 | 0.00 | 53 | 1011.4 |
| 20260503210523 | 61 | 0 | 2.6 | 6.1 | 0.00 | 0.00 | 0.00 | 53 | 1011.3 |
| 20260503210423 | 61 | 0 | 2.6 | 6.1 | 0.00 | 0.00 | 0.00 | 52 | 1011.4 |
| 20260503210323 | 61 | 0 | 2.6 | 6.1 | 0.00 | 0.00 | 0.00 | 52 | 1011.4 |
| 20260503210223 | 61 | 0 | 3.5 | 6.1 | 0.00 | 0.00 | 0.00 | 52 | 1011.5 |
| 20260503210123 | 61 | 0 | 3.5 | 6.1 | 0.00 | 0.00 | 0.00 | 52 | 1011.5 |
| 20260503210023 | 61 | 0 | 1.7 | 5.2 | 0.00 | 0.00 | 0.00 | 52 | 1011.5 |
| 20260503205923 | 61 | 0 | 1.7 | 5.2 | 0.00 | 0.00 | 0.00 | 53 | 1011.3 |
| 20260503205823 | 61 | 0 | 1.7 | 5.2 | 0.00 | 0.00 | 0.00 | 52 | 1011.2 |
| 20260503205723 | 61 | 0 | 1.7 | 5.2 | 0.00 | 0.00 | 0.00 | 54 | 1011.3 |
| 20260503205624 | 61 | 0 | 1.7 | 5.2 | 0.00 | 0.00 | 0.00 | 55 | 1011.4 |
| 20260503205523 | 61 | 0 | 1.7 | 5.2 | 0.00 | 0.00 | 0.00 | 54 | 1011.5 |
| 20260503205423 | 61 | 0 | 1.7 | 6.1 | 0.00 | 0.00 | 0.00 | 54 | 1011.6 |
| 20260503205323 | 61 | 0 | 1.7 | 6.1 | 0.00 | 0.00 | 0.00 | 54 | 1011.6 |
| 20260503205223 | 61 | 0 | 1.7 | 6.1 | 0.00 | 0.00 | 0.00 | 54 | 1011.7 |
| 20260503205123 | 61 | 0 | 1.7 | 6.1 | 0.00 | 0.00 | 0.00 | 55 | 1011.8 |
| 20260503205023 | 61 | 0 | 1.7 | 6.1 | 0.00 | 0.00 | 0.00 | 55 | 1011.8 |
| 20260503204923 | 61 | 0 | 2.6 | 6.1 | 0.00 | 0.00 | 0.00 | 55 | 1011.9 |
| 20260503204822 | 61 | 0 | 3.5 | 6.1 | 0.00 | 0.00 | 0.00 | 55 | 1011.9 |
| 20260503204722 | 61 | 0 | 3.5 | 13.0 | 0.00 | 0.00 | 0.00 | 54 | 1011.9 |
| 20260503204622 | 61 | 0 | 3.5 | 13.0 | 0.00 | 0.00 | 0.00 | 53 | 1012.0 |
| 20260503204522 | 61 | 0 | 4.3 | 13.0 | 0.00 | 0.00 | 0.00 | 54 | 1011.9 |
| 20260503204423 | 61 | 0 | 3.5 | 13.0 | 0.00 | 0.00 | 0.00 | 54 | 1012.0 |
| 20260503204323 | 61 | 0 | 3.5 | 13.0 | 0.00 | 0.00 | 0.00 | 53 | 1012.1 |
| 20260503204223 | 61 | 0 | 3.5 | 13.0 | 0.00 | 0.00 | 0.00 | 53 | 1012.0 |
| 20260503204123 | 61 | 0 | 3.5 | 13.0 | 0.00 | 0.00 | 0.00 | 54 | 1012.1 |
| 20260503204022 | 61 | 0 | 3.5 | 13.0 | 0.00 | 0.00 | 0.00 | 52 | 1012.1 |
| 20260503203922 | 61 | 0 | 5.2 | 13.0 | 0.00 | 0.00 | 0.00 | 53 | 1012.2 |
| 20260503203822 | 61 | 0 | 5.2 | 13.0 | 0.00 | 0.00 | 0.00 | 53 | 1012.3 |
| 20260503203722 | 61 | 0 | 4.3 | 7.8 | 0.00 | 0.00 | 0.00 | 51 | 1012.2 |
| 20260503203622 | 61 | 0 | 4.3 | 7.8 | 0.00 | 0.00 | 0.00 | 52 | 1011.9 |
| 20260503203522 | 61 | 0 | 3.5 | 7.8 | 0.00 | 0.00 | 0.00 | 53 | 1011.7 |
| 20260503203422 | 61 | 0 | 2.6 | 8.7 | 0.00 | 0.00 | 0.00 | 51 | 1011.6 |
| 20260503203322 | 61 | 0 | 3.5 | 8.7 | 0.00 | 0.00 | 0.00 | 53 | 1011.5 |
| 20260503203222 | 62 | 0 | 2.6 | 8.7 | 0.00 | 0.00 | 0.00 | 52 | 1011.5 |
| 20260503203122 | 62 | 0 | 2.6 | 8.7 | 0.00 | 0.00 | 0.00 | 52 | 1011.4 |
| 20260503203023 | 62 | 0 | 1.7 | 8.7 | 0.00 | 0.00 | 0.00 | 52 | 1011.4 |
| 20260503202923 | 62 | 0 | 2.6 | 8.7 | 0.00 | 0.00 | 0.00 | 52 | 1011.5 |
| 20260503202822 | 62 | 0 | 2.6 | 8.7 | 0.00 | 0.00 | 0.00 | 52 | 1011.4 |
| 20260503202722 | 62 | 0 | 2.6 | 8.7 | 0.00 | 0.00 | 0.00 | 50 | 1011.5 |
| 20260503202622 | 62 | 0 | 3.5 | 8.7 | 0.00 | 0.00 | 0.00 | 50 | 1011.6 |
| 20260503202522 | 62 | 0 | 3.5 | 8.7 | 0.00 | 0.00 | 0.00 | 50 | 1011.5 |
| 20260503202422 | 62 | 0 | 3.5 | 7.8 | 0.00 | 0.00 | 0.00 | 50 | 1011.7 |
| 20260503202322 | 62 | 0 | 4.3 | 7.8 | 0.00 | 0.00 | 0.00 | 51 | 1011.7 |
| 20260503202222 | 62 | 0 | 3.5 | 7.8 | 0.00 | 0.00 | 0.00 | 50 | 1011.7 |
| 20260503202122 | 62 | 0 | 3.5 | 8.7 | 0.00 | 0.00 | 0.00 | 51 | 1011.8 |
| 20260503202022 | 62 | 0 | 3.5 | 8.7 | 0.00 | 0.00 | 0.00 | 50 | 1011.9 |
| 20260503201922 | 62 | 0 | 3.5 | 8.7 | 0.00 | 0.00 | 0.00 | 51 | 1012.0 |
| 20260503201822 | 62 | 0 | 3.5 | 8.7 | 0.00 | 0.00 | 0.00 | 52 | 1012.2 |
| 20260503201722 | 62 | 0 | 2.6 | 8.7 | 0.00 | 0.00 | 0.00 | 53 | 1012.3 |
| 20260503201622 | 62 | 0 | 3.5 | 8.7 | 0.00 | 0.00 | 0.00 | 52 | 1012.4 |
| 20260503201522 | 62 | 0 | 2.6 | 8.7 | 0.00 | 0.00 | 0.00 | 53 | 1012.4 |
| 20260503201422 | 62 | 0 | 2.6 | 8.7 | 0.00 | 0.00 | 0.00 | 52 | 1012.3 |
| 20260503201322 | 62 | 0 | 4.3 | 8.7 | 0.00 | 0.00 | 0.00 | 52 | 1012.5 |
| 20260503201222 | 62 | 0 | 4.3 | 8.7 | 0.00 | 0.00 | 0.00 | 52 | 1012.4 |
| 20260503201122 | 62 | 0 | 2.6 | 8.7 | 0.00 | 0.00 | 0.00 | 53 | 1012.6 |
| 20260503201022 | 62 | 0 | 3.5 | 8.7 | 0.00 | 0.00 | 0.00 | 52 | 1012.7 |
| 20260503200922 | 62 | 0 | 3.5 | 9.6 | 0.00 | 0.00 | 0.00 | 53 | 1012.8 |
| 20260503200822 | 62 | 0 | 3.5 | 9.6 | 0.00 | 0.00 | 0.00 | 51 | 1012.9 |
| 20260503200722 | 62 | 0 | 3.5 | 9.6 | 0.00 | 0.00 | 0.00 | 51 | 1012.9 |
| 20260503200622 | 62 | 0 | 5.2 | 9.6 | 0.00 | 0.00 | 0.00 | 50 | 1013.0 |
| 20260503200521 | 62 | 0 | 3.5 | 9.6 | 0.00 | 0.00 | 0.00 | 52 | 1013.0 |
| 20260503200421 | 62 | 0 | 2.6 | 9.6 | 0.00 | 0.00 | 0.00 | 50 | 1013.1 |
| 20260503200321 | 62 | 0 | 3.5 | 9.6 | 0.00 | 0.00 | 0.00 | 51 | 1013.2 |
| 20260503200221 | 62 | 0 | 3.5 | 9.6 | 0.00 | 0.00 | 0.00 | 52 | 1013.3 |
| 20260503200121 | 62 | 0 | 4.3 | 9.6 | 0.00 | 0.00 | 0.00 | 50 | 1013.3 |
| 20260503200022 | 62 | 0 | 4.3 | 9.6 | 0.00 | 0.00 | 0.00 | 52 | 1013.3 |
| 20260503195922 | 62 | 0 | 3.5 | 7.8 | 0.00 | 0.00 | 0.00 | 52 | 1013.3 |
| 20260503195822 | 62 | 0 | 2.6 | 7.8 | 0.00 | 0.00 | 0.00 | 52 | 1013.3 |
| 20260503195722 | 62 | 0 | 2.6 | 7.8 | 0.00 | 0.00 | 0.00 | 52 | 1013.3 |
| 20260503195621 | 62 | 0 | 3.5 | 7.8 | 0.00 | 0.00 | 0.00 | 52 | 1013.3 |
| 20260503195521 | 62 | 0 | 3.5 | 7.8 | 0.00 | 0.00 | 0.00 | 52 | 1013.1 |
| 20260503195421 | 62 | 0 | 3.5 | 7.8 | 0.00 | 0.00 | 0.00 | 51 | 1013.2 |
| 20260503195321 | 62 | 0 | 3.5 | 7.8 | 0.00 | 0.00 | 0.00 | 51 | 1013.2 |
| 20260503195221 | 62 | 0 | 3.5 | 7.8 | 0.00 | 0.00 | 0.00 | 51 | 1013.1 |
| 20260503195121 | 62 | 0 | 3.5 | 8.7 | 0.00 | 0.00 | 0.00 | 50 | 1013.2 |
| 20260503195021 | 62 | 0 | 2.6 | 8.7 | 0.00 | 0.00 | 0.00 | 50 | 1013.4 |
| 20260503194922 | 62 | 0 | 2.6 | 8.7 | 0.00 | 0.00 | 0.00 | 51 | 1013.4 |
| 20260503194822 | 62 | 0 | 2.6 | 12.2 | 0.00 | 0.00 | 0.00 | 50 | 1013.6 |
| 20260503194722 | 62 | 0 | 2.6 | 12.2 | 0.00 | 0.00 | 0.00 | 50 | 1013.7 |
| 20260503194621 | 62 | 0 | 2.6 | 12.2 | 0.00 | 0.00 | 0.00 | 50 | 1013.8 |
| 20260503194521 | 62 | 0 | 3.5 | 12.2 | 0.00 | 0.00 | 0.00 | 51 | 1013.8 |
| 20260503194421 | 62 | 0 | 3.5 | 12.2 | 0.00 | 0.00 | 0.00 | 51 | 1013.9 |
| 20260503194321 | 62 | 0 | 3.5 | 12.2 | 0.00 | 0.00 | 0.00 | 50 | 1013.9 |
| 20260503194221 | 62 | 0 | 5.2 | 12.2 | 0.00 | 0.00 | 0.00 | 49 | 1013.9 |
| 20260503194121 | 62 | 0 | 5.2 | 12.2 | 0.00 | 0.00 | 0.00 | 49 | 1014.0 |
| 20260503194021 | 62 | 0 | 6.1 | 12.2 | 0.00 | 0.00 | 0.00 | 49 | 1014.0 |
| 20260503193921 | 62 | 0 | 7.0 | 12.2 | 0.00 | 0.00 | 0.00 | 50 | 1014.0 |
| 20260503193821 | 62 | 0 | 6.1 | 14.8 | 0.00 | 0.00 | 0.00 | 49 | 1014.1 |
| 20260503193721 | 62 | 0 | 5.2 | 14.8 | 0.00 | 0.00 | 0.00 | 50 | 1014.0 |
| 20260503193621 | 62 | 0 | 3.5 | 14.8 | 0.00 | 0.00 | 0.00 | 50 | 1014.0 |
| 20260503193521 | 62 | 0 | 3.5 | 14.8 | 0.00 | 0.00 | 0.00 | 49 | 1014.1 |
| 20260503193421 | 62 | 0 | 3.5 | 14.8 | 0.00 | 0.00 | 0.00 | 48 | 1014.1 |
| 20260503193321 | 62 | 0 | 5.2 | 14.8 | 0.00 | 0.00 | 0.00 | 48 | 1014.1 |
| 20260503193221 | 62 | 0 | 5.2 | 14.8 | 0.00 | 0.00 | 0.00 | 48 | 1014.0 |
| 20260503193121 | 62 | 0 | 6.1 | 14.8 | 0.00 | 0.00 | 0.00 | 49 | 1014.0 |
| 20260503193021 | 63 | 0 | 6.1 | 14.8 | 0.00 | 0.00 | 0.00 | 49 | 1014.1 |
| 20260503192921 | 63 | 0 | 6.1 | 14.8 | 0.00 | 0.00 | 0.00 | 49 | 1014.1 |
| 20260503192821 | 63 | 0 | 5.2 | 13.9 | 0.00 | 0.00 | 0.00 | 50 | 1014.1 |
| 20260503192720 | 63 | 0 | 2.6 | 9.6 | 0.00 | 0.00 | 0.00 | 50 | 1014.1 |
| 20260503192620 | 63 | 0 | 2.6 | 15.6 | 0.00 | 0.00 | 0.00 | 49 | 1014.1 |
| 20260503192520 | 63 | 0 | 2.6 | 15.6 | 0.00 | 0.00 | 0.00 | 50 | 1014.0 |
| 20260503192421 | 63 | 0 | 4.3 | 15.6 | 0.00 | 0.00 | 0.00 | 48 | 1014.0 |
| 20260503192321 | 63 | 0 | 4.3 | 15.6 | 0.00 | 0.00 | 0.00 | 48 | 1014.0 |
| 20260503192221 | 63 | 0 | 4.3 | 15.6 | 0.00 | 0.00 | 0.00 | 48 | 1013.9 |
| 20260503192121 | 63 | 0 | 4.3 | 15.6 | 0.00 | 0.00 | 0.00 | 47 | 1014.0 |
| 20260503192021 | 63 | 0 | 5.2 | 15.6 | 0.00 | 0.00 | 0.00 | 47 | 1013.9 |
| 20260503191921 | 64 | 0 | 5.2 | 15.6 | 0.00 | 0.00 | 0.00 | 46 | 1013.9 |
| 20260503191821 | 64 | 0 | 7.0 | 15.6 | 0.00 | 0.00 | 0.00 | 47 | 1013.9 |
| 20260503191721 | 64 | 0 | 6.1 | 15.6 | 0.00 | 0.00 | 0.00 | 46 | 1013.8 |
| 20260503191619 | 64 | 0 | 4.3 | 10.4 | 0.00 | 0.00 | 0.00 | 46 | 1013.8 |
| 20260503191521 | 64 | 0 | 4.3 | 10.4 | 0.00 | 0.00 | 0.00 | 46 | 1013.8 |
| 20260503191420 | 64 | 0 | 4.3 | 10.4 | 0.00 | 0.00 | 0.00 | 48 | 1013.8 |
| 20260503191320 | 64 | 0 | 6.1 | 11.3 | 0.00 | 0.00 | 0.00 | 48 | 1013.8 |
| 20260503191220 | 64 | 0 | 5.2 | 11.3 | 0.00 | 0.00 | 0.00 | 47 | 1013.6 |
| 20260503191120 | 64 | 0 | 3.5 | 11.3 | 0.00 | 0.00 | 0.00 | 48 | 1013.4 |
| 20260503191020 | 64 | 0 | 5.2 | 11.3 | 0.00 | 0.00 | 0.00 | 47 | 1013.8 |
| 20260503190920 | 64 | 0 | 4.3 | 11.3 | 0.00 | 0.00 | 0.00 | 47 | 1013.9 |
| 20260503190820 | 64 | 0 | 4.3 | 11.3 | 0.00 | 0.00 | 0.00 | 47 | 1013.9 |
| 20260503190720 | 64 | 0 | 5.2 | 11.3 | 0.00 | 0.00 | 0.00 | 49 | 1013.8 |
| 20260503190620 | 64 | 0 | 4.3 | 11.3 | 0.00 | 0.00 | 0.00 | 50 | 1013.9 |
| 20260503190520 | 64 | 0 | 5.2 | 13.0 | 0.00 | 0.00 | 0.00 | 49 | 1013.9 |
| 20260503190420 | 64 | 0 | 6.1 | 13.9 | 0.00 | 0.00 | 0.00 | 48 | 1013.9 |
| 20260503190320 | 64 | 0 | 5.2 | 13.9 | 0.00 | 0.00 | 0.00 | 49 | 1013.8 |
| 20260503190220 | 65 | 0 | 4.3 | 13.9 | 0.00 | 0.00 | 0.00 | 46 | 1013.9 |
| 20260503190121 | 65 | 0 | 4.3 | 13.9 | 0.00 | 0.00 | 0.00 | 45 | 1013.8 |
| 20260503190020 | 65 | 0 | 4.3 | 13.9 | 0.00 | 0.00 | 0.00 | 45 | 1013.9 |
| 20260503185920 | 65 | 0 | 5.2 | 13.9 | 0.00 | 0.00 | 0.00 | 45 | 1013.9 |
| 20260503185820 | 65 | 0 | 5.2 | 13.9 | 0.00 | 0.00 | 0.00 | 44 | 1013.9 |
| 20260503185720 | 65 | 0 | 6.1 | 13.9 | 0.00 | 0.00 | 0.00 | 44 | 1013.9 |
| 20260503185621 | 65 | 0 | 6.1 | 13.9 | 0.00 | 0.00 | 0.00 | 45 | 1013.8 |
| 20260503185520 | 64 | 0 | 5.2 | 13.9 | 0.00 | 0.00 | 0.00 | 47 | 1013.9 |
| 20260503185420 | 64 | 0 | 5.2 | 13.9 | 0.00 | 0.00 | 0.00 | 47 | 1013.9 |
| 20260503185320 | 64 | 0 | 4.3 | 13.0 | 0.00 | 0.00 | 0.00 | 48 | 1013.9 |
| 20260503185220 | 64 | 0 | 4.3 | 13.0 | 0.00 | 0.00 | 0.00 | 47 | 1013.8 |
| 20260503185120 | 64 | 0 | 5.2 | 13.0 | 0.00 | 0.00 | 0.00 | 47 | 1013.8 |
| 20260503185019 | 64 | 0 | 5.2 | 13.0 | 0.00 | 0.00 | 0.00 | 47 | 1013.9 |
| 20260503184919 | 64 | 0 | 5.2 | 13.0 | 0.00 | 0.00 | 0.00 | 45 | 1014.0 |
| 20260503184820 | 64 | 0 | 4.3 | 13.0 | 0.00 | 0.00 | 0.00 | 48 | 1013.9 |
| 20260503184720 | 64 | 0 | 3.5 | 13.0 | 0.00 | 0.00 | 0.00 | 44 | 1014.1 |
| 20260503184620 | 64 | 0 | 5.2 | 13.0 | 0.00 | 0.00 | 0.00 | 45 | 1014.1 |
| 20260503184520 | 65 | 0 | 6.1 | 13.0 | 0.00 | 0.00 | 0.00 | 45 | 1014.0 |
| 20260503184420 | 65 | 0 | 6.1 | 13.0 | 0.00 | 0.00 | 0.00 | 45 | 1014.1 |
| 20260503184320 | 65 | 0 | 6.1 | 12.2 | 0.00 | 0.00 | 0.00 | 47 | 1014.2 |
| 20260503184220 | 65 | 0 | 5.2 | 12.2 | 0.00 | 0.00 | 0.00 | 48 | 1014.1 |
| 20260503184120 | 65 | 0 | 5.2 | 14.8 | 0.00 | 0.00 | 0.00 | 49 | 1014.1 |
| 20260503184019 | 65 | 0 | 4.3 | 14.8 | 0.00 | 0.00 | 0.00 | 52 | 1014.2 |
| 20260503183919 | 65 | 0 | 3.5 | 14.8 | 0.00 | 0.00 | 0.00 | 51 | 1014.3 |
| 20260503183819 | 65 | 0 | 3.5 | 14.8 | 0.00 | 0.00 | 0.00 | 52 | 1014.2 |
| 20260503183719 | 65 | 0 | 2.6 | 14.8 | 0.00 | 0.00 | 0.00 | 52 | 1014.2 |
| 20260503183619 | 65 | 0 | 3.5 | 14.8 | 0.00 | 0.00 | 0.00 | 51 | 1014.3 |
| 20260503183519 | 65 | 0 | 4.3 | 14.8 | 0.00 | 0.00 | 0.00 | 50 | 1014.2 |
| 20260503183419 | 65 | 0 | 5.2 | 14.8 | 0.00 | 0.00 | 0.00 | 49 | 1014.3 |
| 20260503183319 | 65 | 0 | 6.1 | 14.8 | 0.00 | 0.00 | 0.00 | 50 | 1014.4 |
| 20260503183219 | 65 | 0 | 6.1 | 14.8 | 0.00 | 0.00 | 0.00 | 47 | 1014.4 |
| 20260503183119 | 65 | 0 | 5.2 | 13.9 | 0.00 | 0.00 | 0.00 | 48 | 1014.5 |
| 20260503183019 | 65 | 0 | 6.1 | 13.9 | 0.00 | 0.00 | 0.00 | 48 | 1014.5 |
| 20260503182919 | 65 | 0 | 7.0 | 13.9 | 0.00 | 0.00 | 0.00 | 49 | 1014.5 |
| 20260503182819 | 65 | 0 | 7.0 | 12.2 | 0.00 | 0.00 | 0.00 | 50 | 1014.4 |
| 20260503182719 | 65 | 0 | 6.1 | 11.3 | 0.00 | 0.00 | 0.00 | 50 | 1014.5 |
| 20260503182619 | 65 | 0 | 5.2 | 11.3 | 0.00 | 0.00 | 0.00 | 48 | 1014.5 |
| 20260503182519 | 65 | 0 | 5.2 | 11.3 | 0.00 | 0.00 | 0.00 | 50 | 1014.6 |
| 20260503182419 | 65 | 0 | 4.3 | 9.6 | 0.00 | 0.00 | 0.00 | 49 | 1014.7 |
| 20260503182319 | 65 | 0 | 3.5 | 9.6 | 0.00 | 0.00 | 0.00 | 49 | 1014.6 |
| 20260503182219 | 65 | 0 | 4.3 | 9.6 | 0.00 | 0.00 | 0.00 | 48 | 1014.6 |
| 20260503182119 | 65 | 0 | 5.2 | 9.6 | 0.00 | 0.00 | 0.00 | 48 | 1014.6 |
| 20260503182019 | 64 | 0 | 5.2 | 9.6 | 0.00 | 0.00 | 0.00 | 49 | 1014.5 |
| 20260503181919 | 64 | 0 | 5.2 | 9.6 | 0.00 | 0.00 | 0.00 | 48 | 1014.6 |
| 20260503181820 | 64 | 0 | 4.3 | 10.4 | 0.00 | 0.00 | 0.00 | 48 | 1014.5 |
| 20260503181720 | 64 | 0 | 4.3 | 10.4 | 0.00 | 0.00 | 0.00 | 49 | 1014.6 |
| 20260503181619 | 64 | 0 | 3.5 | 10.4 | 0.00 | 0.00 | 0.00 | 50 | 1014.6 |
| 20260503181519 | 64 | 0 | 3.5 | 10.4 | 0.00 | 0.00 | 0.00 | 50 | 1014.5 |
| 20260503181419 | 64 | 0 | 4.3 | 10.4 | 0.00 | 0.00 | 0.00 | 52 | 1014.6 |
| 20260503181319 | 63 | 0 | 5.2 | 15.6 | 0.00 | 0.00 | 0.00 | 52 | 1014.6 |
| 20260503181219 | 63 | 0 | 4.3 | 15.6 | 0.00 | 0.00 | 0.00 | 54 | 1014.5 |
| 20260503181119 | 63 | 0 | 3.5 | 15.6 | 0.00 | 0.00 | 0.00 | 54 | 1014.7 |
| 20260503181019 | 63 | 0 | 4.3 | 15.6 | 0.00 | 0.00 | 0.00 | 55 | 1014.8 |
| 20260503180919 | 63 | 0 | 6.1 | 15.6 | 0.00 | 0.00 | 0.00 | 53 | 1014.7 |
| 20260503180819 | 63 | 0 | 5.2 | 15.6 | 0.00 | 0.00 | 0.00 | 53 | 1014.9 |
| 20260503180719 | 63 | 0 | 3.5 | 15.6 | 0.00 | 0.00 | 0.00 | 54 | 1015.0 |
| 20260503180619 | 63 | 0 | 4.3 | 15.6 | 0.00 | 0.00 | 0.00 | 51 | 1014.9 |
| 20260503180519 | 63 | 0 | 7.0 | 15.6 | 0.00 | 0.00 | 0.00 | 51 | 1014.9 |
| 20260503180418 | 63 | 0 | 7.8 | 15.6 | 0.00 | 0.00 | 0.00 | 52 | 1014.9 |
| 20260503180318 | 63 | 0 | 7.8 | 13.9 | 0.00 | 0.00 | 0.00 | 51 | 1014.9 |
| 20260503180219 | 63 | 0 | 7.0 | 13.9 | 0.00 | 0.00 | 0.00 | 50 | 1015.1 |
| 20260503180119 | 63 | 0 | 5.2 | 12.2 | 0.00 | 0.00 | 0.00 | 54 | 1014.9 |
| 20260503180019 | 63 | 0 | 6.1 | 13.9 | 0.00 | 0.00 | 0.00 | 51 | 1015.1 |
| 20260503175919 | 63 | 0 | 6.1 | 13.9 | 0.00 | 0.00 | 0.00 | 52 | 1015.1 |
| 20260503175819 | 63 | 0 | 5.2 | 13.9 | 0.00 | 0.00 | 0.00 | 50 | 1015.1 |
| 20260503175719 | 63 | 0 | 5.2 | 13.9 | 0.00 | 0.00 | 0.00 | 49 | 1015.1 |
| 20260503175619 | 63 | 0 | 6.1 | 13.9 | 0.00 | 0.00 | 0.00 | 49 | 1015.2 |
| 20260503175519 | 63 | 0 | 6.1 | 13.9 | 0.00 | 0.00 | 0.00 | 49 | 1015.1 |
| 20260503175418 | 63 | 0 | 5.2 | 13.9 | 0.00 | 0.00 | 0.00 | 49 | 1015.1 |
| 20260503175318 | 63 | 0 | 5.2 | 13.9 | 0.00 | 0.00 | 0.00 | 52 | 1015.2 |
| 20260503175219 | 63 | 0 | 6.1 | 13.9 | 0.00 | 0.00 | 0.00 | 49 | 1015.3 |
| 20260503175117 | 63 | 0 | 6.1 | 15.6 | 0.00 | 0.00 | 0.00 | 49 | 1015.4 |
| 20260503175018 | 63 | 0 | 6.1 | 15.6 | 0.00 | 0.00 | 0.00 | 49 | 1015.4 |
| 20260503174918 | 63 | 0 | 6.1 | 15.6 | 0.00 | 0.00 | 0.00 | 50 | 1015.3 |
| 20260503174818 | 63 | 0 | 5.2 | 15.6 | 0.00 | 0.00 | 0.00 | 54 | 1015.4 |
| 20260503174718 | 63 | 0 | 5.2 | 15.6 | 0.00 | 0.00 | 0.00 | 54 | 1015.4 |
| 20260503174618 | 62 | 0 | 7.0 | 17.4 | 0.00 | 0.00 | 0.00 | 55 | 1015.4 |
| 20260503174518 | 62 | 0 | 6.1 | 17.4 | 0.00 | 0.00 | 0.00 | 53 | 1015.5 |
| 20260503174419 | 62 | 0 | 5.2 | 17.4 | 0.00 | 0.00 | 0.00 | 53 | 1015.3 |
| 20260503174319 | 62 | 0 | 6.1 | 17.4 | 0.00 | 0.00 | 0.00 | 50 | 1015.3 |
| 20260503174218 | 62 | 0 | 6.1 | 17.4 | 0.00 | 0.00 | 0.00 | 54 | 1015.5 |
| 20260503174118 | 62 | 0 | 5.2 | 17.4 | 0.00 | 0.00 | 0.00 | 53 | 1015.6 |
| 20260503174018 | 62 | 0 | 6.1 | 17.4 | 0.00 | 0.00 | 0.00 | 53 | 1015.6 |
| 20260503173918 | 61 | 0 | 7.0 | 17.4 | 0.00 | 0.00 | 0.00 | 53 | 1015.8 |
| 20260503173818 | 61 | 0 | 8.7 | 17.4 | 0.00 | 0.00 | 0.00 | 53 | 1015.7 |
| 20260503173718 | 61 | 0 | 7.8 | 17.4 | 0.00 | 0.00 | 0.00 | 55 | 1015.8 |
| 20260503173618 | 61 | 0 | 5.2 | 12.2 | 0.00 | 0.00 | 0.00 | 55 | 1015.8 |
| 20260503173518 | 61 | 0 | 5.2 | 11.3 | 0.00 | 0.00 | 0.00 | 57 | 1015.8 |
| 20260503173418 | 61 | 0 | 4.3 | 11.3 | 0.00 | 0.00 | 0.00 | 53 | 1015.8 |
| 20260503173318 | 61 | 0 | 3.5 | 14.8 | 0.00 | 0.00 | 0.00 | 55 | 1015.8 |
| 20260503173218 | 61 | 0 | 2.6 | 14.8 | 0.00 | 0.00 | 0.00 | 53 | 1015.8 |
| 20260503173118 | 61 | 0 | 3.5 | 14.8 | 0.00 | 0.00 | 0.00 | 53 | 1015.9 |
| 20260503173018 | 61 | 0 | 3.5 | 14.8 | 0.00 | 0.00 | 0.00 | 54 | 1015.9 |
| 20260503172918 | 61 | 0 | 5.2 | 14.8 | 0.00 | 0.00 | 0.00 | 54 | 1016.0 |
| 20260503172818 | 62 | 0 | 7.0 | 14.8 | 0.00 | 0.00 | 0.00 | 54 | 1016.0 |
| 20260503172718 | 62 | 0 | 7.0 | 14.8 | 0.00 | 0.00 | 0.00 | 52 | 1015.9 |
| 20260503172618 | 62 | 0 | 6.1 | 14.8 | 0.00 | 0.00 | 0.00 | 54 | 1016.0 |
| 20260503172518 | 62 | 0 | 7.0 | 14.8 | 0.00 | 0.00 | 0.00 | 52 | 1016.1 |
| 20260503172418 | 62 | 0 | 6.1 | 14.8 | 0.00 | 0.00 | 0.00 | 55 | 1016.0 |
| 20260503172318 | 62 | 0 | 4.3 | 14.8 | 0.00 | 0.00 | 0.00 | 53 | 1015.9 |
| 20260503172218 | 62 | 0 | 3.5 | 14.8 | 0.00 | 0.00 | 0.00 | 51 | 1016.0 |
| 20260503172118 | 62 | 0 | 3.5 | 14.8 | 0.00 | 0.00 | 0.00 | 56 | 1016.0 |
| 20260503172018 | 62 | 0 | 3.5 | 14.8 | 0.00 | 0.00 | 0.00 | 52 | 1016.0 |
| 20260503171918 | 62 | 0 | 5.2 | 14.8 | 0.00 | 0.00 | 0.00 | 51 | 1016.0 |
| 20260503171817 | 62 | 0 | 5.2 | 14.8 | 0.00 | 0.00 | 0.00 | 50 | 1016.1 |
| 20260503171718 | 62 | 0 | 6.1 | 14.8 | 0.00 | 0.00 | 0.00 | 54 | 1016.1 |
| 20260503171618 | 62 | 0 | 7.0 | 14.8 | 0.00 | 0.00 | 0.00 | 53 | 1016.1 |
| 20260503171518 | 62 | 0 | 7.8 | 14.8 | 0.00 | 0.00 | 0.00 | 52 | 1016.3 |
| 20260503171418 | 62 | 0 | 7.8 | 13.9 | 0.00 | 0.00 | 0.00 | 52 | 1016.3 |
| 20260503171318 | 62 | 0 | 7.8 | 14.8 | 0.00 | 0.00 | 0.00 | 52 | 1016.4 |
| 20260503171217 | 62 | 0 | 6.1 | 14.8 | 0.00 | 0.00 | 0.00 | 54 | 1016.4 |
| 20260503171116 | 62 | 0 | 4.3 | 14.8 | 0.00 | 0.00 | 0.00 | 51 | 1016.4 |
| 20260503171017 | 62 | 0 | 5.2 | 14.8 | 0.00 | 0.00 | 0.00 | 50 | 1016.4 |
| 20260503170917 | 62 | 0 | 5.2 | 14.8 | 0.00 | 0.00 | 0.00 | 54 | 1016.5 |
| 20260503170817 | 62 | 0 | 5.2 | 14.8 | 0.00 | 0.00 | 0.00 | 55 | 1016.5 |
| 20260503170717 | 62 | 0 | 6.1 | 14.8 | 0.00 | 0.00 | 0.00 | 55 | 1016.4 |
| 20260503170617 | 62 | 0 | 7.0 | 14.8 | 0.00 | 0.00 | 0.00 | 53 | 1016.3 |
| 20260503170517 | 62 | 0 | 7.0 | 14.8 | 0.00 | 0.00 | 0.00 | 53 | 1016.4 |
| 20260503170417 | 62 | 0 | 6.1 | 16.5 | 0.00 | 0.00 | 0.00 | 53 | 1016.2 |
| 20260503170318 | 62 | 0 | 5.2 | 16.5 | 0.00 | 0.00 | 0.00 | 59 | 1016.3 |
| 20260503170218 | 61 | 0 | 5.2 | 16.5 | 0.00 | 0.00 | 0.00 | 57 | 1016.3 |
| 20260503170118 | 61 | 0 | 4.3 | 16.5 | 0.00 | 0.00 | 0.00 | 57 | 1016.2 |
| 20260503160217 | 60 | 0 | 5.2 | 13.9 | 0.00 | 0.00 | 0.00 | 58 | 1017.3 |
| 20260503160116 | 60 | 0 | 4.3 | 8.7 | 0.00 | 0.00 | 0.00 | 56 | 1017.3 |
| 20260503150915 | 57 | 0 | 3.5 | 8.7 | 0.00 | 0.00 | 0.00 | 61 | 1017.6 |
| 20260503150815 | 57 | 0 | 3.5 | 9.6 | 0.00 | 0.00 | 0.00 | 61 | 1017.7 |
| 20260503150715 | 57 | 0 | 3.5 | 9.6 | 0.00 | 0.00 | 0.00 | 61 | 1017.7 |
| 20260503150615 | 57 | 0 | 4.3 | 9.6 | 0.00 | 0.00 | 0.00 | 61 | 1017.7 |
| 20260503150515 | 57 | 0 | 4.3 | 9.6 | 0.00 | 0.00 | 0.00 | 60 | 1017.8 |
| 20260503150414 | 57 | 0 | 4.3 | 11.3 | 0.00 | 0.00 | 0.00 | 61 | 1017.8 |
| 20260503150314 | 57 | 0 | 3.5 | 11.3 | 0.00 | 0.00 | 0.00 | 62 | 1017.9 |
| 20260503150214 | 56 | 0 | 3.5 | 11.3 | 0.00 | 0.00 | 0.00 | 60 | 1017.9 |
| 20260503150115 | 56 | 0 | 4.3 | 12.2 | 0.00 | 0.00 | 0.00 | 62 | 1017.9 |
| 20260503140313 | 52 | 0 | 3.5 | 9.6 | 0.00 | 0.00 | 0.00 | 72 | 1018.0 |
| 20260503140213 | 52 | 0 | 3.5 | 9.6 | 0.00 | 0.00 | 0.00 | 73 | 1018.1 |
| 20260503140114 | 52 | 0 | 3.5 | 9.6 | 0.00 | 0.00 | 0.00 | 73 | 1018.2 |
| 20260503131413 | 49 | 0 | 1.7 | 5.2 | 0.00 | 0.00 | 0.00 | 79 | 1017.9 |
| 20260503131313 | 49 | 0 | 1.7 | 5.2 | 0.00 | 0.00 | 0.00 | 79 | 1018.0 |
| 20260503131212 | 49 | 0 | 1.7 | 5.2 | 0.00 | 0.00 | 0.00 | 79 | 1017.9 |
| 20260503131112 | 49 | 0 | 2.6 | 5.2 | 0.00 | 0.00 | 0.00 | 80 | 1018.0 |
| 20260503131012 | 48 | 0 | 2.6 | 5.2 | 0.00 | 0.00 | 0.00 | 80 | 1017.9 |
| 20260503130912 | 48 | 0 | 1.7 | 4.3 | 0.00 | 0.00 | 0.00 | 81 | 1018.0 |
| 20260503130812 | 48 | 0 | 1.7 | 4.3 | 0.00 | 0.00 | 0.00 | 81 | 1017.9 |
| 20260503130712 | 48 | 0 | 1.7 | 4.3 | 0.00 | 0.00 | 0.00 | 81 | 1018.0 |
| 20260503130612 | 48 | 0 | 1.7 | 4.3 | 0.00 | 0.00 | 0.00 | 81 | 1018.0 |
| 20260503130512 | 47 | 0 | 1.7 | 4.3 | 0.00 | 0.00 | 0.00 | 82 | 1017.9 |
| 20260503130412 | 47 | 0 | 1.7 | 4.3 | 0.00 | 0.00 | 0.00 | 82 | 1018.0 |
| 20260503130312 | 47 | 0 | 1.7 | 4.3 | 0.00 | 0.00 | 0.00 | 81 | 1018.0 |
| 20260503130211 | 47 | 0 | 1.7 | 4.3 | 0.00 | 0.00 | 0.00 | 81 | 1018.0 |
| 20260503130112 | 47 | 0 | 2.6 | 4.3 | 0.00 | 0.00 | 0.00 | 82 | 1018.0 |
| 20260503120210 | 38 | 0 | 0.9 | 1.7 | 0.00 | 0.00 | 0.00 | 88 | 1018.1 |
| 20260503120110 | 38 | 0 | 0.9 | 1.7 | 0.00 | 0.00 | 0.00 | 88 | 1018.1 |
| 20260503110809 | 36 | 351 | 0.0 | 0.9 | 0.00 | 0.00 | 0.00 | 88 | 1017.8 |
| 20260503110709 | 36 | 351 | 0.0 | 0.9 | 0.00 | 0.00 | 0.00 | 88 | 1017.8 |
| 20260503110609 | 36 | 351 | 0.0 | 0.9 | 0.00 | 0.00 | 0.00 | 88 | 1017.8 |
| 20260503110509 | 36 | 351 | 0.0 | 0.9 | 0.00 | 0.00 | 0.00 | 88 | 1017.8 |
| 20260503110409 | 36 | 351 | 0.0 | 0.9 | 0.00 | 0.00 | 0.00 | 88 | 1017.8 |
| 20260503110309 | 36 | 351 | 0.0 | 0.9 | 0.00 | 0.00 | 0.00 | 88 | 1017.8 |
| 20260503110209 | 36 | 351 | 0.0 | 0.9 | 0.00 | 0.00 | 0.00 | 88 | 1017.7 |
| 20260503110109 | 36 | 351 | 0.0 | 0.9 | 0.00 | 0.00 | 0.00 | 88 | 1017.8 |
| 20260503100208 | 36 | 351 | 0.0 | 0.0 | 0.00 | 0.00 | 0.00 | 88 | 1017.6 |
| 20260503100108 | 36 | 351 | 0.0 | 0.0 | 0.00 | 0.00 | 0.00 | 88 | 1017.6 |
| 20260503090506 | 37 | 351 | 0.0 | 0.0 | 0.00 | 0.00 | 0.00 | 88 | 1017.7 |
| 20260503090406 | 37 | 351 | 0.0 | 0.0 | 0.00 | 0.00 | 0.00 | 88 | 1017.7 |
| 20260503090306 | 37 | 351 | 0.0 | 0.0 | 0.00 | 0.00 | 0.00 | 88 | 1017.6 |
| 20260503090206 | 37 | 351 | 0.0 | 0.0 | 0.00 | 0.00 | 0.00 | 88 | 1017.7 |
| 20260503090106 | 37 | 351 | 0.0 | 0.0 | 0.00 | 0.00 | 0.00 | 88 | 1017.7 |
| 20260503081605 | 37 | 0 | 0.9 | 0.9 | 0.00 | 0.00 | 0.00 | 88 | 1017.7 |
| 20260503081505 | 37 | 0 | 0.9 | 0.9 | 0.00 | 0.00 | 0.00 | 88 | 1017.8 |
| 20260503081405 | 37 | 0 | 0.0 | 0.9 | 0.00 | 0.00 | 0.00 | 88 | 1017.7 |
| 20260503081305 | 37 | 0 | 0.0 | 0.9 | 0.00 | 0.00 | 0.00 | 88 | 1017.7 |
| 20260503081205 | 37 | 0 | 0.0 | 0.9 | 0.00 | 0.00 | 0.00 | 88 | 1017.8 |
| 20260503081105 | 37 | 0 | 0.0 | 0.9 | 0.00 | 0.00 | 0.00 | 88 | 1017.7 |
| 20260503081005 | 37 | 0 | 0.0 | 0.9 | 0.00 | 0.00 | 0.00 | 88 | 1017.7 |
| 20260503080905 | 37 | 0 | 0.0 | 0.9 | 0.00 | 0.00 | 0.00 | 88 | 1017.7 |
| 20260503080805 | 37 | 0 | 0.0 | 0.9 | 0.00 | 0.00 | 0.00 | 88 | 1017.7 |
| 20260503080705 | 37 | 0 | 0.0 | 0.9 | 0.00 | 0.00 | 0.00 | 88 | 1017.7 |
| 20260503080605 | 37 | 0 | 0.0 | 0.9 | 0.00 | 0.00 | 0.00 | 88 | 1017.7 |
| 20260503080505 | 37 | 0 | 0.0 | 0.9 | 0.00 | 0.00 | 0.00 | 88 | 1017.7 |
| 20260503080405 | 37 | 0 | 0.0 | 0.9 | 0.00 | 0.00 | 0.00 | 88 | 1017.7 |
| 20260503080305 | 37 | 0 | 0.0 | 0.9 | 0.00 | 0.00 | 0.00 | 88 | 1017.7 |
| 20260503080204 | 37 | 0 | 0.0 | 0.9 | 0.00 | 0.00 | 0.00 | 88 | 1017.7 |
| 20260503080105 | 37 | 0 | 0.0 | 0.0 | 0.00 | 0.00 | 0.00 | 88 | 1017.8 |
| 20260503072904 | 37 | 350 | 0.0 | 0.9 | 0.00 | 0.00 | 0.00 | 88 | 1017.7 |
| 20260503072804 | 37 | 350 | 0.0 | 0.9 | 0.00 | 0.00 | 0.00 | 88 | 1017.7 |
| 20260503072704 | 37 | 350 | 0.0 | 0.9 | 0.00 | 0.00 | 0.00 | 88 | 1017.7 |
| 20260503072604 | 37 | 350 | 0.0 | 0.9 | 0.00 | 0.00 | 0.00 | 88 | 1017.7 |
| 20260503072504 | 37 | 350 | 0.0 | 0.9 | 0.00 | 0.00 | 0.00 | 88 | 1017.7 |
| 20260503072404 | 37 | 350 | 0.0 | 0.9 | 0.00 | 0.00 | 0.00 | 88 | 1017.7 |
| 20260503072305 | 37 | 350 | 0.0 | 0.0 | 0.00 | 0.00 | 0.00 | 88 | 1017.7 |
| 20260503072204 | 37 | 350 | 0.0 | 0.0 | 0.00 | 0.00 | 0.00 | 88 | 1017.7 |
| 20260503072104 | 37 | 350 | 0.0 | 0.0 | 0.00 | 0.00 | 0.00 | 88 | 1017.6 |
| 20260503072004 | 37 | 350 | 0.0 | 0.0 | 0.00 | 0.00 | 0.00 | 88 | 1017.6 |
| 20260503071904 | 38 | 350 | 0.0 | 0.9 | 0.00 | 0.00 | 0.00 | 88 | 1017.7 |
| 20260503071804 | 38 | 350 | 0.0 | 0.9 | 0.00 | 0.00 | 0.00 | 88 | 1017.7 |
| 20260503071704 | 38 | 350 | 0.0 | 0.9 | 0.00 | 0.00 | 0.00 | 88 | 1017.7 |
| 20260503071604 | 38 | 350 | 0.0 | 0.9 | 0.00 | 0.00 | 0.00 | 88 | 1017.8 |
| 20260503071504 | 38 | 350 | 0.0 | 0.9 | 0.00 | 0.00 | 0.00 | 88 | 1017.7 |
| 20260503071404 | 38 | 350 | 0.0 | 0.9 | 0.00 | 0.00 | 0.00 | 88 | 1017.7 |
| 20260503071304 | 38 | 350 | 0.0 | 0.9 | 0.00 | 0.00 | 0.00 | 88 | 1017.7 |
| 20260503071204 | 38 | 350 | 0.0 | 0.9 | 0.00 | 0.00 | 0.00 | 88 | 1017.7 |
| 20260503071103 | 38 | 350 | 0.0 | 0.9 | 0.00 | 0.00 | 0.00 | 88 | 1017.7 |
| 20260503071004 | 38 | 350 | 0.0 | 0.9 | 0.00 | 0.00 | 0.00 | 88 | 1017.7 |
| 20260503070904 | 38 | 350 | 0.0 | 0.9 | 0.00 | 0.00 | 0.00 | 88 | 1017.8 |
| 20260503070804 | 38 | 350 | 0.0 | 1.7 | 0.00 | 0.00 | 0.00 | 88 | 1017.8 |
| 20260503070704 | 38 | 350 | 0.0 | 1.7 | 0.00 | 0.00 | 0.00 | 88 | 1017.8 |
| 20260503070603 | 38 | 350 | 0.0 | 1.7 | 0.00 | 0.00 | 0.00 | 88 | 1017.8 |
| 20260503070503 | 38 | 350 | 0.0 | 1.7 | 0.00 | 0.00 | 0.00 | 88 | 1017.8 |
| 20260503070403 | 38 | 350 | 0.0 | 1.7 | 0.00 | 0.00 | 0.00 | 88 | 1017.8 |
| 20260503070302 | 38 | 350 | 0.0 | 1.7 | 0.00 | 0.00 | 0.00 | 88 | 1017.9 |
| 20260503070203 | 38 | 350 | 0.0 | 1.7 | 0.00 | 0.00 | 0.00 | 88 | 1017.9 |
| 20260503070103 | 38 | 350 | 0.9 | 1.7 | 0.00 | 0.00 | 0.00 | 88 | 1017.8 |
| 20260503060331 | 38 | 350 | 0.0 | 0.9 | 0.00 | 0.00 | 0.00 | 88 | 1018.2 |
| 20260503060231 | 38 | 348 | 0.9 | 0.9 | 0.00 | 0.00 | 0.00 | 88 | 1018.2 |
| 20260503060131 | 38 | 348 | 0.9 | 0.9 | 0.00 | 0.00 | 0.00 | 88 | 1018.2 |
| 20260503055119 | 38 | 350 | 0.0 | 0.0 | 0.00 | 0.00 | 0.00 | 88 | 1018.1 |
| 20260503055017 | 38 | 350 | 0.0 | 0.0 | 0.00 | 0.00 | 0.00 | 88 | 1018.2 |
| 20260503054915 | 38 | 350 | 0.0 | 0.0 | 0.00 | 0.00 | 0.00 | 88 | 1018.2 |
| 20260503054814 | 38 | 350 | 0.0 | 0.0 | 0.00 | 0.00 | 0.00 | 88 | 1018.1 |
| 20260503054713 | 38 | 350 | 0.0 | 0.0 | 0.00 | 0.00 | 0.00 | 88 | 1018.2 |
| 20260503054611 | 38 | 350 | 0.0 | 0.0 | 0.00 | 0.00 | 0.00 | 88 | 1018.2 |
| 20260503054507 | 38 | 350 | 0.0 | 0.0 | 0.00 | 0.00 | 0.00 | 88 | 1018.2 |
| 20260503054406 | 38 | 350 | 0.0 | 0.0 | 0.00 | 0.00 | 0.00 | 88 | 1018.2 |
| 20260503054304 | 38 | 350 | 0.0 | 0.0 | 0.00 | 0.00 | 0.00 | 88 | 1018.2 |
| 20260503054203 | 38 | 350 | 0.0 | 0.0 | 0.00 | 0.00 | 0.00 | 88 | 1018.2 |
| 20260503054101 | 38 | 350 | 0.0 | 0.0 | 0.00 | 0.00 | 0.00 | 88 | 1018.2 |
| 20260503054002 | 38 | 350 | 0.0 | 0.0 | 0.00 | 0.00 | 0.00 | 88 | 1018.2 |
| 20260503053902 | 38 | 350 | 0.0 | 0.0 | 0.00 | 0.00 | 0.00 | 88 | 1018.2 |
| 20260503053801 | 38 | 350 | 0.0 | 0.0 | 0.00 | 0.00 | 0.00 | 88 | 1018.2 |
| 20260503053702 | 38 | 350 | 0.0 | 0.0 | 0.00 | 0.00 | 0.00 | 88 | 1018.2 |
| 20260503053602 | 38 | 350 | 0.0 | 0.0 | 0.00 | 0.00 | 0.00 | 88 | 1018.2 |
| 20260503053503 | 38 | 350 | 0.0 | 0.9 | 0.00 | 0.00 | 0.00 | 88 | 1018.2 |
| 20260503053404 | 38 | 350 | 0.0 | 0.9 | 0.00 | 0.00 | 0.00 | 88 | 1018.2 |
| 20260503053302 | 38 | 350 | 0.0 | 0.9 | 0.00 | 0.00 | 0.00 | 88 | 1018.2 |
| 20260503053202 | 38 | 350 | 0.0 | 0.9 | 0.00 | 0.00 | 0.00 | 88 | 1018.2 |
| 20260503053102 | 38 | 350 | 0.0 | 0.9 | 0.00 | 0.00 | 0.00 | 88 | 1018.2 |
| 20260503053002 | 38 | 350 | 0.0 | 0.9 | 0.00 | 0.00 | 0.00 | 88 | 1018.2 |
| 20260503052902 | 38 | 350 | 0.0 | 0.9 | 0.00 | 0.00 | 0.00 | 88 | 1018.1 |
| 20260503052802 | 38 | 350 | 0.0 | 0.9 | 0.00 | 0.00 | 0.00 | 88 | 1018.1 |
| 20260503052702 | 38 | 350 | 0.0 | 0.9 | 0.00 | 0.00 | 0.00 | 88 | 1018.2 |
| 20260503052602 | 38 | 350 | 0.0 | 0.9 | 0.00 | 0.00 | 0.00 | 88 | 1018.1 |
| 20260503052502 | 38 | 350 | 0.0 | 0.9 | 0.00 | 0.00 | 0.00 | 88 | 1018.1 |
| 20260503052401 | 38 | 350 | 0.0 | 0.9 | 0.00 | 0.00 | 0.00 | 88 | 1018.1 |
| 20260503052301 | 38 | 350 | 0.0 | 0.9 | 0.00 | 0.00 | 0.00 | 88 | 1018.1 |
| 20260503052201 | 38 | 350 | 0.0 | 0.9 | 0.00 | 0.00 | 0.00 | 88 | 1018.1 |
| 20260503052101 | 38 | 350 | 0.0 | 0.9 | 0.00 | 0.00 | 0.00 | 88 | 1018.1 |
| 20260503052001 | 38 | 350 | 0.0 | 0.9 | 0.00 | 0.00 | 0.00 | 88 | 1018.1 |
| 20260503051901 | 38 | 350 | 0.0 | 0.9 | 0.00 | 0.00 | 0.00 | 88 | 1018.1 |
| 20260503051801 | 38 | 350 | 0.0 | 0.9 | 0.00 | 0.00 | 0.00 | 88 | 1018.1 |
| 20260503051701 | 38 | 350 | 0.0 | 0.9 | 0.00 | 0.00 | 0.00 | 88 | 1018.0 |
| 20260503051601 | 38 | 350 | 0.0 | 0.9 | 0.00 | 0.00 | 0.00 | 88 | 1018.2 |
| 20260503051501 | 38 | 350 | 0.0 | 0.9 | 0.00 | 0.00 | 0.00 | 87 | 1018.1 |
| 20260503051401 | 38 | 350 | 0.0 | 0.9 | 0.00 | 0.00 | 0.00 | 87 | 1018.1 |
| 20260503051301 | 38 | 350 | 0.0 | 0.9 | 0.00 | 0.00 | 0.00 | 87 | 1018.2 |
| 20260503051201 | 38 | 350 | 0.0 | 0.9 | 0.00 | 0.00 | 0.00 | 87 | 1018.2 |
| 20260503051101 | 38 | 350 | 0.0 | 0.9 | 0.00 | 0.00 | 0.00 | 88 | 1018.1 |
| 20260503051001 | 38 | 350 | 0.0 | 0.9 | 0.00 | 0.00 | 0.00 | 88 | 1018.1 |
| 20260503050901 | 38 | 350 | 0.0 | 0.9 | 0.00 | 0.00 | 0.00 | 87 | 1018.2 |
| 20260503050801 | 38 | 350 | 0.0 | 0.9 | 0.00 | 0.00 | 0.00 | 87 | 1018.1 |
| 20260503050701 | 38 | 350 | 0.0 | 0.9 | 0.00 | 0.00 | 0.00 | 87 | 1018.1 |
| 20260503050601 | 38 | 350 | 0.0 | 0.9 | 0.00 | 0.00 | 0.00 | 87 | 1018.2 |
| 20260503050501 | 38 | 350 | 0.0 | 0.9 | 0.00 | 0.00 | 0.00 | 87 | 1018.2 |
| 20260503050401 | 38 | 350 | 0.0 | 0.9 | 0.00 | 0.00 | 0.00 | 87 | 1018.2 |
| 20260503050301 | 38 | 350 | 0.0 | 0.0 | 0.00 | 0.00 | 0.00 | 87 | 1018.2 |
| 20260503050201 | 39 | 350 | 0.0 | 0.0 | 0.00 | 0.00 | 0.00 | 87 | 1018.2 |
| 20260503050101 | 39 | 350 | 0.0 | 0.0 | 0.00 | 0.00 | 0.00 | 87 | 1018.2 |
| 20260503050000 | 39 | 350 | 0.0 | 0.0 | 0.00 | 0.00 | 0.00 | 87 | 1018.2 |
| 20260503045859 | 39 | 350 | 0.0 | 0.0 | 0.00 | 0.00 | 0.00 | 87 | 1018.3 |
| 20260503045800 | 39 | 350 | 0.0 | 0.0 | 0.00 | 0.00 | 0.00 | 87 | 1018.3 |
| 20260503045700 | 39 | 350 | 0.0 | 0.0 | 0.00 | 0.00 | 0.00 | 87 | 1018.2 |
| 20260503045600 | 39 | 350 | 0.0 | 0.0 | 0.00 | 0.00 | 0.00 | 87 | 1018.3 |
| 20260503045500 | 39 | 350 | 0.0 | 0.0 | 0.00 | 0.00 | 0.00 | 87 | 1018.3 |
| 20260503045400 | 39 | 350 | 0.0 | 0.0 | 0.00 | 0.00 | 0.00 | 87 | 1018.3 |
| 20260503045300 | 39 | 350 | 0.0 | 0.0 | 0.00 | 0.00 | 0.00 | 87 | 1018.2 |
| 20260503045200 | 39 | 350 | 0.0 | 0.0 | 0.00 | 0.00 | 0.00 | 87 | 1018.2 |
| 20260503045100 | 39 | 350 | 0.0 | 0.0 | 0.00 | 0.00 | 0.00 | 87 | 1018.3 |
| 20260503045000 | 39 | 350 | 0.0 | 0.0 | 0.00 | 0.00 | 0.00 | 87 | 1018.2 |
| 20260503044900 | 39 | 350 | 0.0 | 0.0 | 0.00 | 0.00 | 0.00 | 87 | 1018.3 |
| 20260503044800 | 39 | 350 | 0.0 | 0.0 | 0.00 | 0.00 | 0.00 | 87 | 1018.2 |
| 20260503044700 | 39 | 350 | 0.0 | 0.0 | 0.00 | 0.00 | 0.00 | 87 | 1018.3 |
| 20260503044600 | 39 | 350 | 0.0 | 0.0 | 0.00 | 0.00 | 0.00 | 87 | 1018.3 |
| 20260503044500 | 39 | 350 | 0.0 | 0.0 | 0.00 | 0.00 | 0.00 | 87 | 1018.3 |
| 20260503044400 | 39 | 350 | 0.0 | 0.0 | 0.00 | 0.00 | 0.00 | 87 | 1018.2 |
| 20260503044300 | 39 | 350 | 0.0 | 0.0 | 0.00 | 0.00 | 0.00 | 87 | 1018.3 |
| 20260503044200 | 39 | 350 | 0.0 | 0.0 | 0.00 | 0.00 | 0.00 | 87 | 1018.2 |
| 20260503044100 | 39 | 350 | 0.0 | 0.0 | 0.00 | 0.00 | 0.00 | 87 | 1018.3 |
| 20260503044000 | 39 | 350 | 0.0 | 0.0 | 0.00 | 0.00 | 0.00 | 87 | 1018.2 |
| 20260503043900 | 39 | 350 | 0.0 | 0.0 | 0.00 | 0.00 | 0.00 | 87 | 1018.2 |
| 20260503043800 | 39 | 350 | 0.0 | 0.0 | 0.00 | 0.00 | 0.00 | 87 | 1018.2 |
| 20260503043700 | 39 | 350 | 0.0 | 0.0 | 0.00 | 0.00 | 0.00 | 87 | 1018.2 |
| 20260503043600 | 39 | 350 | 0.0 | 0.0 | 0.00 | 0.00 | 0.00 | 87 | 1018.2 |
| 20260503043500 | 39 | 350 | 0.0 | 0.0 | 0.00 | 0.00 | 0.00 | 87 | 1018.2 |
| 20260503043400 | 39 | 0 | 0.0 | 0.0 | 0.00 | 0.00 | 0.00 | 86 | 1018.1 |
| 20260503043300 | 39 | 0 | 0.0 | 0.0 | 0.00 | 0.00 | 0.00 | 87 | 1018.2 |
| 20260503043200 | 39 | 348 | 0.0 | 0.0 | 0.00 | 0.00 | 0.00 | 87 | 1018.1 |
| 20260503043100 | 39 | 350 | 0.0 | 0.0 | 0.00 | 0.00 | 0.00 | 86 | 1018.2 |
| 20260503043000 | 39 | 350 | 0.0 | 0.0 | 0.00 | 0.00 | 0.00 | 86 | 1018.2 |
| 20260503042900 | 39 | 350 | 0.0 | 0.0 | 0.00 | 0.00 | 0.00 | 86 | 1018.2 |
| 20260503042800 | 39 | 350 | 0.0 | 0.0 | 0.00 | 0.00 | 0.00 | 86 | 1018.1 |
| 20260503042659 | 39 | 350 | 0.0 | 0.0 | 0.00 | 0.00 | 0.00 | 86 | 1018.2 |
| 20260503042600 | 39 | 350 | 0.0 | 0.0 | 0.00 | 0.00 | 0.00 | 86 | 1018.1 |
| 20260503042459 | 39 | 350 | 0.0 | 0.0 | 0.00 | 0.00 | 0.00 | 86 | 1018.1 |
| 20260503042359 | 39 | 350 | 0.0 | 0.0 | 0.00 | 0.00 | 0.00 | 86 | 1018.2 |
| 20260503042259 | 40 | 350 | 0.0 | 0.0 | 0.00 | 0.00 | 0.00 | 86 | 1018.2 |
| 20260503042159 | 40 | 350 | 0.0 | 0.0 | 0.00 | 0.00 | 0.00 | 86 | 1018.2 |
| 20260503042059 | 40 | 350 | 0.0 | 0.0 | 0.00 | 0.00 | 0.00 | 86 | 1018.2 |
| 20260503041959 | 40 | 350 | 0.0 | 0.0 | 0.00 | 0.00 | 0.00 | 86 | 1018.2 |
| 20260503041859 | 40 | 350 | 0.0 | 0.0 | 0.00 | 0.00 | 0.00 | 86 | 1018.2 |
| 20260503041759 | 40 | 350 | 0.0 | 0.0 | 0.00 | 0.00 | 0.00 | 86 | 1018.3 |
| 20260503041659 | 40 | 350 | 0.0 | 0.0 | 0.00 | 0.00 | 0.00 | 86 | 1018.2 |
| 20260503041613 | 40 | 350 | 0.0 | 0.0 | 0.00 | 0.00 | 0.00 | 86 | 1018.2 |
| 20260503041459 | 40 | 350 | 0.0 | 0.0 | 0.00 | 0.00 | 0.00 | 86 | 1018.2 |
| 20260503041359 | 40 | 350 | 0.0 | 0.0 | 0.00 | 0.00 | 0.00 | 86 | 1018.2 |
| 20260503041259 | 40 | 350 | 0.0 | 0.0 | 0.00 | 0.00 | 0.00 | 86 | 1018.3 |
| 20260503041159 | 40 | 350 | 0.0 | 0.0 | 0.00 | 0.00 | 0.00 | 86 | 1018.3 |
| 20260503041059 | 40 | 350 | 0.0 | 0.0 | 0.00 | 0.00 | 0.00 | 86 | 1018.2 |
| 20260503040959 | 40 | 350 | 0.0 | 0.0 | 0.00 | 0.00 | 0.00 | 86 | 1018.3 |
| 20260503040859 | 40 | 350 | 0.0 | 0.0 | 0.00 | 0.00 | 0.00 | 86 | 1018.2 |
| 20260503040759 | 40 | 350 | 0.0 | 0.0 | 0.00 | 0.00 | 0.00 | 86 | 1018.2 |
| 20260503040659 | 40 | 350 | 0.0 | 0.0 | 0.00 | 0.00 | 0.00 | 86 | 1018.2 |
| 20260503040559 | 40 | 350 | 0.0 | 0.0 | 0.00 | 0.00 | 0.00 | 85 | 1018.2 |
| 20260503040459 | 40 | 350 | 0.0 | 0.0 | 0.00 | 0.00 | 0.00 | 85 | 1018.2 |
| 20260503040359 | 40 | 350 | 0.0 | 0.0 | 0.00 | 0.00 | 0.00 | 85 | 1018.2 |
| 20260503040259 | 40 | 350 | 0.0 | 0.0 | 0.00 | 0.00 | 0.00 | 85 | 1018.3 |
| 20260503040159 | 40 | 350 | 0.0 | 0.0 | 0.00 | 0.00 | 0.00 | 85 | 1018.3 |
| 20260503040059 | 40 | 350 | 0.0 | 0.0 | 0.00 | 0.00 | 0.00 | 85 | 1018.3 |
| 20260503035959 | 40 | 350 | 0.0 | 0.0 | 0.00 | 0.00 | 0.00 | 85 | 1018.3 |
| 20260503035859 | 40 | 350 | 0.0 | 0.0 | 0.00 | 0.00 | 0.00 | 85 | 1018.3 |
| 20260503035759 | 40 | 350 | 0.0 | 0.0 | 0.00 | 0.00 | 0.00 | 85 | 1018.4 |
| 20260503035659 | 40 | 350 | 0.0 | 0.0 | 0.00 | 0.00 | 0.00 | 85 | 1018.3 |
| 20260503035559 | 40 | 351 | 0.0 | 0.0 | 0.00 | 0.00 | 0.00 | 85 | 1018.3 |
| 20260503035459 | 40 | 351 | 0.0 | 0.0 | 0.00 | 0.00 | 0.00 | 85 | 1018.3 |
| 20260503035359 | 40 | 351 | 0.0 | 0.0 | 0.00 | 0.00 | 0.00 | 85 | 1018.3 |
| 20260503035259 | 40 | 351 | 0.0 | 0.0 | 0.00 | 0.00 | 0.00 | 85 | 1018.3 |
| 20260503035159 | 40 | 348 | 0.0 | 0.0 | 0.00 | 0.00 | 0.00 | 85 | 1018.4 |
| 20260503035059 | 40 | 350 | 0.0 | 0.0 | 0.00 | 0.00 | 0.00 | 85 | 1018.3 |
| 20260503034959 | 40 | 350 | 0.0 | 0.0 | 0.00 | 0.00 | 0.00 | 85 | 1018.4 |
| 20260503034859 | 40 | 350 | 0.0 | 0.0 | 0.00 | 0.00 | 0.00 | 85 | 1018.3 |
| 20260503034759 | 40 | 350 | 0.0 | 0.0 | 0.00 | 0.00 | 0.00 | 85 | 1018.4 |
| 20260503034659 | 40 | 350 | 0.0 | 0.0 | 0.00 | 0.00 | 0.00 | 84 | 1018.3 |
| 20260503034559 | 40 | 351 | 0.0 | 0.0 | 0.00 | 0.00 | 0.00 | 85 | 1018.3 |
| 20260503034459 | 40 | 350 | 0.0 | 0.0 | 0.00 | 0.00 | 0.00 | 85 | 1018.3 |
| 20260503034359 | 40 | 350 | 0.0 | 0.0 | 0.00 | 0.00 | 0.00 | 84 | 1018.3 |
| 20260503034259 | 40 | 350 | 0.0 | 0.0 | 0.00 | 0.00 | 0.00 | 84 | 1018.3 |
| 20260503034159 | 40 | 350 | 0.0 | 0.0 | 0.00 | 0.00 | 0.00 | 84 | 1018.3 |
| 20260503034058 | 40 | 350 | 0.0 | 0.0 | 0.00 | 0.00 | 0.00 | 84 | 1018.3 |
| 20260503033958 | 40 | 350 | 0.0 | 0.0 | 0.00 | 0.00 | 0.00 | 84 | 1018.3 |
| 20260503033858 | 40 | 350 | 0.0 | 0.0 | 0.00 | 0.00 | 0.00 | 84 | 1018.4 |
| 20260503033758 | 40 | 350 | 0.0 | 0.0 | 0.00 | 0.00 | 0.00 | 83 | 1018.3 |
| 20260503033658 | 40 | 350 | 0.0 | 0.0 | 0.00 | 0.00 | 0.00 | 83 | 1018.3 |
| 20260503033558 | 40 | 350 | 0.0 | 0.0 | 0.00 | 0.00 | 0.00 | 83 | 1018.3 |
| 20260503033459 | 40 | 350 | 0.0 | 0.0 | 0.00 | 0.00 | 0.00 | 83 | 1018.3 |
| 20260503033357 | 40 | 350 | 0.0 | 0.0 | 0.00 | 0.00 | 0.00 | 83 | 1018.2 |
| 20260503033258 | 41 | 350 | 0.0 | 0.0 | 0.00 | 0.00 | 0.00 | 83 | 1018.2 |
| 20260503033158 | 41 | 350 | 0.0 | 0.0 | 0.00 | 0.00 | 0.00 | 83 | 1018.2 |
| 20260503033058 | 41 | 350 | 0.0 | 0.0 | 0.00 | 0.00 | 0.00 | 82 | 1018.3 |
| 20260503032958 | 41 | 350 | 0.0 | 0.0 | 0.00 | 0.00 | 0.00 | 82 | 1018.3 |
| 20260503032858 | 41 | 350 | 0.0 | 0.0 | 0.00 | 0.00 | 0.00 | 82 | 1018.3 |
| 20260503032758 | 41 | 350 | 0.0 | 0.0 | 0.00 | 0.00 | 0.00 | 82 | 1018.3 |
| 20260503032658 | 41 | 350 | 0.0 | 0.0 | 0.00 | 0.00 | 0.00 | 82 | 1018.2 |
| 20260503032558 | 41 | 350 | 0.0 | 0.0 | 0.00 | 0.00 | 0.00 | 82 | 1018.3 |
| 20260503032458 | 41 | 350 | 0.0 | 0.0 | 0.00 | 0.00 | 0.00 | 82 | 1018.3 |
| 20260503032358 | 41 | 350 | 0.0 | 0.0 | 0.00 | 0.00 | 0.00 | 82 | 1018.2 |
| 20260503032258 | 41 | 350 | 0.0 | 0.0 | 0.00 | 0.00 | 0.00 | 82 | 1018.2 |
| 20260503032158 | 41 | 350 | 0.0 | 0.0 | 0.00 | 0.00 | 0.00 | 82 | 1018.2 |
| 20260503032058 | 41 | 350 | 0.0 | 0.0 | 0.00 | 0.00 | 0.00 | 81 | 1018.2 |
| 20260503031958 | 41 | 351 | 0.0 | 0.0 | 0.00 | 0.00 | 0.00 | 81 | 1018.2 |
| 20260503031858 | 41 | 350 | 0.0 | 0.0 | 0.00 | 0.00 | 0.00 | 81 | 1018.2 |
| 20260503031758 | 41 | 350 | 0.0 | 0.0 | 0.00 | 0.00 | 0.00 | 81 | 1018.3 |
| 20260503031658 | 41 | 350 | 0.0 | 0.0 | 0.00 | 0.00 | 0.00 | 81 | 1018.2 |
| 20260503031558 | 41 | 351 | 0.0 | 0.0 | 0.00 | 0.00 | 0.00 | 81 | 1018.3 |
| 20260503031458 | 41 | 350 | 0.0 | 0.0 | 0.00 | 0.00 | 0.00 | 81 | 1018.2 |
| 20260503031358 | 41 | 350 | 0.0 | 0.0 | 0.00 | 0.00 | 0.00 | 81 | 1018.3 |
| 20260503031258 | 41 | 350 | 0.0 | 0.0 | 0.00 | 0.00 | 0.00 | 81 | 1018.2 |
| 20260503031158 | 41 | 350 | 0.0 | 0.0 | 0.00 | 0.00 | 0.00 | 80 | 1018.3 |
| 20260503031058 | 41 | 350 | 0.0 | 0.0 | 0.00 | 0.00 | 0.00 | 80 | 1018.3 |
| 20260503030958 | 41 | 350 | 0.0 | 0.0 | 0.00 | 0.00 | 0.00 | 80 | 1018.3 |
| 20260503030858 | 41 | 350 | 0.0 | 0.0 | 0.00 | 0.00 | 0.00 | 80 | 1018.3 |
| 20260503030758 | 41 | 350 | 0.0 | 0.0 | 0.00 | 0.00 | 0.00 | 80 | 1018.3 |
| 20260503030658 | 41 | 350 | 0.0 | 0.0 | 0.00 | 0.00 | 0.00 | 80 | 1018.3 |
| 20260503030558 | 41 | 350 | 0.0 | 0.0 | 0.00 | 0.00 | 0.00 | 80 | 1018.3 |
| 20260503030458 | 41 | 350 | 0.0 | 0.0 | 0.00 | 0.00 | 0.00 | 79 | 1018.3 |
| 20260503030357 | 42 | 351 | 0.0 | 0.0 | 0.00 | 0.00 | 0.00 | 79 | 1018.2 |
| 20260503030259 | 42 | 351 | 0.0 | 0.0 | 0.00 | 0.00 | 0.00 | 79 | 1018.2 |
| 20260503030158 | 42 | 351 | 0.0 | 0.0 | 0.00 | 0.00 | 0.00 | 79 | 1018.2 |
| 20260503030058 | 42 | 351 | 0.0 | 0.0 | 0.00 | 0.00 | 0.00 | 79 | 1018.2 |
| 20260503025958 | 42 | 351 | 0.0 | 0.0 | 0.00 | 0.00 | 0.00 | 79 | 1018.3 |
| 20260503025858 | 42 | 351 | 0.0 | 0.0 | 0.00 | 0.00 | 0.00 | 79 | 1018.2 |
| 20260503025758 | 42 | 351 | 0.0 | 0.0 | 0.00 | 0.00 | 0.00 | 79 | 1018.3 |
| 20260503025658 | 42 | 351 | 0.0 | 0.0 | 0.00 | 0.00 | 0.00 | 79 | 1018.3 |
| 20260503025557 | 42 | 351 | 0.0 | 0.0 | 0.00 | 0.00 | 0.00 | 79 | 1018.3 |
| 20260503025457 | 42 | 351 | 0.0 | 0.0 | 0.00 | 0.00 | 0.00 | 79 | 1018.3 |
| 20260503025358 | 42 | 351 | 0.0 | 0.0 | 0.00 | 0.00 | 0.00 | 79 | 1018.3 |
| 20260503025258 | 42 | 351 | 0.0 | 0.0 | 0.00 | 0.00 | 0.00 | 79 | 1018.3 |
| 20260503025158 | 42 | 351 | 0.0 | 0.0 | 0.00 | 0.00 | 0.00 | 79 | 1018.3 |
| 20260503025058 | 42 | 351 | 0.0 | 0.0 | 0.00 | 0.00 | 0.00 | 79 | 1018.3 |
| 20260503024958 | 42 | 351 | 0.0 | 0.0 | 0.00 | 0.00 | 0.00 | 78 | 1018.3 |
| 20260503024858 | 42 | 351 | 0.0 | 0.0 | 0.00 | 0.00 | 0.00 | 78 | 1018.3 |
| 20260503024758 | 42 | 351 | 0.0 | 0.0 | 0.00 | 0.00 | 0.00 | 78 | 1018.3 |
| 20260503024658 | 42 | 351 | 0.0 | 0.0 | 0.00 | 0.00 | 0.00 | 78 | 1018.3 |
| 20260503024558 | 42 | 351 | 0.0 | 0.0 | 0.00 | 0.00 | 0.00 | 79 | 1018.3 |
| 20260503024457 | 42 | 351 | 0.0 | 0.0 | 0.00 | 0.00 | 0.00 | 78 | 1018.3 |
| 20260503024357 | 42 | 351 | 0.0 | 0.0 | 0.00 | 0.00 | 0.00 | 78 | 1018.3 |
| 20260503024257 | 42 | 351 | 0.0 | 0.0 | 0.00 | 0.00 | 0.00 | 78 | 1018.2 |
| 20260503024157 | 42 | 351 | 0.0 | 0.0 | 0.00 | 0.00 | 0.00 | 78 | 1018.3 |
| 20260503024058 | 42 | 351 | 0.0 | 0.0 | 0.00 | 0.00 | 0.00 | 78 | 1018.3 |
| 20260503023958 | 42 | 351 | 0.0 | 0.0 | 0.00 | 0.00 | 0.00 | 78 | 1018.3 |
| 20260503023858 | 42 | 351 | 0.0 | 0.0 | 0.00 | 0.00 | 0.00 | 78 | 1018.3 |
| 20260503023758 | 42 | 351 | 0.0 | 0.0 | 0.00 | 0.00 | 0.00 | 77 | 1018.3 |
| 20260503023658 | 42 | 351 | 0.0 | 0.0 | 0.00 | 0.00 | 0.00 | 77 | 1018.3 |
| 20260503023558 | 42 | 351 | 0.0 | 0.0 | 0.00 | 0.00 | 0.00 | 77 | 1018.3 |
| 20260503023457 | 43 | 351 | 0.0 | 0.0 | 0.00 | 0.00 | 0.00 | 77 | 1018.2 |
| 20260503023357 | 43 | 351 | 0.0 | 0.0 | 0.00 | 0.00 | 0.00 | 76 | 1018.2 |
| 20260503023258 | 43 | 351 | 0.0 | 0.0 | 0.00 | 0.00 | 0.00 | 76 | 1018.3 |
| 20260503023158 | 43 | 351 | 0.0 | 0.0 | 0.00 | 0.00 | 0.00 | 75 | 1018.2 |
| 20260503023057 | 43 | 351 | 0.0 | 0.0 | 0.00 | 0.00 | 0.00 | 75 | 1018.3 |
| 20260503022957 | 43 | 351 | 0.0 | 0.0 | 0.00 | 0.00 | 0.00 | 75 | 1018.2 |
| 20260503022857 | 43 | 351 | 0.0 | 0.0 | 0.00 | 0.00 | 0.00 | 75 | 1018.3 |
| 20260503022757 | 43 | 351 | 0.0 | 0.0 | 0.00 | 0.00 | 0.00 | 75 | 1018.2 |
| 20260503022657 | 43 | 351 | 0.0 | 0.0 | 0.00 | 0.00 | 0.00 | 75 | 1018.3 |
| 20260503022557 | 43 | 351 | 0.0 | 0.0 | 0.00 | 0.00 | 0.00 | 75 | 1018.2 |
| 20260503022457 | 43 | 351 | 0.0 | 0.0 | 0.00 | 0.00 | 0.00 | 75 | 1018.2 |
| 20260503022357 | 43 | 351 | 0.0 | 0.0 | 0.00 | 0.00 | 0.00 | 74 | 1018.2 |
| 20260503022257 | 43 | 351 | 0.0 | 0.0 | 0.00 | 0.00 | 0.00 | 74 | 1018.3 |
| 20260503022157 | 43 | 351 | 0.0 | 0.0 | 0.00 | 0.00 | 0.00 | 74 | 1018.2 |
| 20260503022057 | 44 | 351 | 0.0 | 0.0 | 0.00 | 0.00 | 0.00 | 74 | 1018.2 |
| 20260503021957 | 44 | 351 | 0.0 | 0.0 | 0.00 | 0.00 | 0.00 | 74 | 1018.2 |
| 20260503021856 | 44 | 351 | 0.0 | 0.0 | 0.00 | 0.00 | 0.00 | 74 | 1018.2 |
| 20260503021757 | 44 | 351 | 0.0 | 0.0 | 0.00 | 0.00 | 0.00 | 74 | 1018.2 |
| 20260503021657 | 44 | 351 | 0.0 | 0.0 | 0.00 | 0.00 | 0.00 | 74 | 1018.1 |
| 20260503021557 | 44 | 351 | 0.0 | 0.0 | 0.00 | 0.00 | 0.00 | 74 | 1018.1 |
| 20260503021457 | 44 | 351 | 0.0 | 0.0 | 0.00 | 0.00 | 0.00 | 74 | 1018.1 |
| 20260503021357 | 44 | 351 | 0.0 | 0.0 | 0.00 | 0.00 | 0.00 | 74 | 1018.1 |
| 20260503021257 | 44 | 351 | 0.0 | 0.0 | 0.00 | 0.00 | 0.00 | 74 | 1018.1 |
| 20260503021157 | 44 | 351 | 0.0 | 0.0 | 0.00 | 0.00 | 0.00 | 74 | 1018.2 |
| 20260503021056 | 44 | 351 | 0.0 | 0.0 | 0.00 | 0.00 | 0.00 | 74 | 1018.1 |
| 20260503020956 | 44 | 351 | 0.0 | 0.0 | 0.00 | 0.00 | 0.00 | 74 | 1018.1 |
| 20260503020855 | 44 | 351 | 0.0 | 0.0 | 0.00 | 0.00 | 0.00 | 73 | 1018.2 |
| 20260503020757 | 44 | 351 | 0.0 | 0.0 | 0.00 | 0.00 | 0.00 | 73 | 1018.2 |
| 20260503020657 | 44 | 351 | 0.0 | 0.0 | 0.00 | 0.00 | 0.00 | 73 | 1018.1 |
| 20260503020557 | 45 | 351 | 0.0 | 0.0 | 0.00 | 0.00 | 0.00 | 73 | 1018.1 |
| 20260503020457 | 45 | 351 | 0.0 | 0.0 | 0.00 | 0.00 | 0.00 | 72 | 1018.1 |
| 20260503020357 | 45 | 351 | 0.0 | 0.0 | 0.00 | 0.00 | 0.00 | 72 | 1018.1 |
| 20260503020256 | 45 | 351 | 0.0 | 0.0 | 0.00 | 0.00 | 0.00 | 72 | 1018.1 |
| 20260503020156 | 45 | 351 | 0.0 | 0.0 | 0.00 | 0.00 | 0.00 | 72 | 1018.1 |
| 20260503020056 | 45 | 351 | 0.0 | 0.0 | 0.00 | 0.00 | 0.00 | 72 | 1018.1 |
| 20260503015956 | 45 | 351 | 0.0 | 0.0 | 0.00 | 0.00 | 0.00 | 72 | 1018.0 |
| 20260503015856 | 45 | 351 | 0.0 | 0.0 | 0.00 | 0.00 | 0.00 | 71 | 1018.0 |
| 20260503015757 | 45 | 351 | 0.0 | 0.0 | 0.00 | 0.00 | 0.00 | 71 | 1018.0 |
| 20260503015657 | 45 | 351 | 0.0 | 0.0 | 0.00 | 0.00 | 0.00 | 71 | 1018.0 |
| 20260503015557 | 45 | 351 | 0.0 | 0.0 | 0.00 | 0.00 | 0.00 | 70 | 1018.0 |
| 20260503015456 | 45 | 351 | 0.0 | 0.0 | 0.00 | 0.00 | 0.00 | 70 | 1018.0 |
| 20260503015356 | 45 | 351 | 0.0 | 0.0 | 0.00 | 0.00 | 0.00 | 70 | 1018.0 |
| 20260503015256 | 45 | 351 | 0.0 | 0.0 | 0.00 | 0.00 | 0.00 | 70 | 1018.0 |
| 20260503015156 | 46 | 351 | 0.0 | 0.0 | 0.00 | 0.00 | 0.00 | 70 | 1018.0 |
| 20260503015056 | 46 | 351 | 0.0 | 0.0 | 0.00 | 0.00 | 0.00 | 69 | 1018.0 |
| 20260503014956 | 46 | 351 | 0.0 | 0.0 | 0.00 | 0.00 | 0.00 | 69 | 1017.9 |
| 20260503014856 | 46 | 351 | 0.0 | 0.0 | 0.00 | 0.00 | 0.00 | 69 | 1018.0 |
| 20260503014756 | 46 | 351 | 0.0 | 0.0 | 0.00 | 0.00 | 0.00 | 68 | 1018.0 |
| 20260503014656 | 46 | 351 | 0.0 | 0.0 | 0.00 | 0.00 | 0.00 | 68 | 1017.9 |
| 20260503014556 | 46 | 351 | 0.0 | 0.0 | 0.00 | 0.00 | 0.00 | 68 | 1017.9 |
| 20260503014456 | 46 | 351 | 0.0 | 0.0 | 0.00 | 0.00 | 0.00 | 68 | 1017.9 |
| 20260503014356 | 46 | 351 | 0.0 | 0.0 | 0.00 | 0.00 | 0.00 | 67 | 1017.9 |
| 20260503014256 | 46 | 351 | 0.0 | 0.0 | 0.00 | 0.00 | 0.00 | 67 | 1017.8 |
| 20260503014156 | 46 | 351 | 0.0 | 0.0 | 0.00 | 0.00 | 0.00 | 67 | 1017.9 |
| 20260503014055 | 47 | 351 | 0.0 | 0.0 | 0.00 | 0.00 | 0.00 | 67 | 1017.9 |
| 20260503013956 | 47 | 351 | 0.0 | 0.0 | 0.00 | 0.00 | 0.00 | 67 | 1017.9 |
| 20260503013856 | 47 | 351 | 0.0 | 0.0 | 0.00 | 0.00 | 0.00 | 66 | 1017.9 |
| 20260503013756 | 47 | 351 | 0.0 | 0.0 | 0.00 | 0.00 | 0.00 | 66 | 1017.8 |
| 20260503013656 | 47 | 351 | 0.0 | 0.0 | 0.00 | 0.00 | 0.00 | 66 | 1017.9 |
| 20260503013556 | 47 | 351 | 0.0 | 0.0 | 0.00 | 0.00 | 0.00 | 66 | 1017.9 |
| 20260503013456 | 47 | 351 | 0.0 | 0.0 | 0.00 | 0.00 | 0.00 | 66 | 1017.8 |
| 20260503013355 | 47 | 351 | 0.0 | 0.0 | 0.00 | 0.00 | 0.00 | 65 | 1017.8 |
| 20260503013257 | 47 | 351 | 0.0 | 0.0 | 0.00 | 0.00 | 0.00 | 63 | 1017.9 |
| 20260503013156 | 47 | 351 | 0.0 | 0.0 | 0.00 | 0.00 | 0.00 | 63 | 1017.8 |